Time,TemperatureF,DewpointF,PressureIn,WindDirection,WindDirectionDegrees,WindSpeedMPH,WindSpeedGustMPH,Humidity,HourlyPrecipIn,Conditions,Clouds,dailyrainin,SoftwareType,DateUTC
2013-01-20 00:00:00,43.8,30.4,30.04,NW,306,0.0,5.0,59,0.00,,CLR,0.00,VWS V14.01,2013-01-20 06:00:00,
2013-01-20 00:01:00,43.7,30.3,30.04,West,281,2.0,5.0,59,0.00,,CLR,0.00,VWS V14.01,2013-01-20 06:01:00,
2013-01-20 00:02:00,43.7,30.3,30.04,West,279,2.0,5.0,59,0.00,,CLR,0.00,VWS V14.01,2013-01-20 06:02:00,
2013-01-20 00:04:00,43.5,30.1,30.04,WNW,296,0.0,6.0,59,0.00,,CLR,0.00,VWS V14.01,2013-01-20 06:04:00,
2013-01-20 00:06:00,43.4,30.5,30.04,WNW,297,3.0,6.0,60,0.00,,CLR,0.00,VWS V14.01,2013-01-20 06:06:00,
2013-01-20 00:07:00,43.2,30.3,30.04,NW,312,7.0,7.0,60,0.00,,CLR,0.00,VWS V14.01,2013-01-20 06:07:00,
2013-01-20 00:09:00,43.1,30.2,30.04,NW,309,7.0,9.0,60,0.00,,CLR,0.00,VWS V14.01,2013-01-20 06:09:00,
2013-01-20 00:11:00,43.1,30.2,30.04,NW,316,1.0,10.0,60,0.00,,CLR,0.00,VWS V14.01,2013-01-20 06:11:00,
2013-01-20 00:12:00,43.1,30.2,30.04,West,281,1.0,10.0,60,0.00,,CLR,0.00,VWS V14.01,2013-01-20 06:12:00,
2013-01-20 00:14:00,43.0,30.1,30.05,NW,304,2.0,13.0,60,0.00,,CLR,0.00,VWS V14.01,2013-01-20 06:14:00,
2013-01-20 00:16:00,42.8,30.3,30.05,NW,304,0.0,13.0,61,0.00,,CLR,0.00,VWS V14.01,2013-01-20 06:16:00,
2013-01-20 00:17:00,42.8,30.3,30.05,NW,308,11.0,13.0,61,0.00,,CLR,0.00,VWS V14.01,2013-01-20 06:17:00,
2013-01-20 00:18:00,42.7,30.2,30.05,WNW,282,6.0,13.0,61,0.00,,CLR,0.00,VWS V14.01,2013-01-20 06:18:00,
2013-01-20 00:19:00,42.7,30.6,30.05,NNW,332,5.0,13.0,62,0.00,,CLR,0.00,VWS V14.01,2013-01-20 06:19:00,
2013-01-20 00:21:00,42.5,30.4,30.05,WNW,296,10.0,13.0,62,0.00,,CLR,0.00,VWS V14.01,2013-01-20 06:21:00,
2013-01-20 00:22:00,42.4,30.3,30.05,WNW,296,1.0,13.0,62,0.00,,CLR,0.00,VWS V14.01,2013-01-20 06:22:00,
2013-01-20 00:23:00,42.4,30.3,30.05,WNW,299,0.0,13.0,62,0.00,,CLR,0.00,VWS V14.01,2013-01-20 06:23:00,
2013-01-20 00:24:00,42.2,30.1,30.05,WNW,303,2.0,13.0,62,0.00,,CLR,0.00,VWS V14.01,2013-01-20 06:24:00,
2013-01-20 00:26:00,42.1,30.0,30.05,WNW,296,0.0,13.0,62,0.00,,CLR,0.00,VWS V14.01,2013-01-20 06:26:00,
2013-01-20 00:27:00,42.0,30.3,30.05,WNW,300,0.0,13.0,63,0.00,,CLR,0.00,VWS V14.01,2013-01-20 06:27:00,
2013-01-20 00:28:00,42.0,30.3,30.05,NW,317,9.0,13.0,63,0.00,,CLR,0.00,VWS V14.01,2013-01-20 06:28:00,
2013-01-20 00:29:00,41.8,30.1,30.06,WNW,301,1.0,13.0,63,0.00,,CLR,0.00,VWS V14.01,2013-01-20 06:29:00,
2013-01-20 00:30:00,41.8,30.1,30.06,NNW,334,4.0,13.0,63,0.00,,,0.00,VWS V14.01,2013-01-20 06:30:00,
2013-01-20 00:31:00,41.7,30.4,30.06,WNW,282,9.0,11.0,64,0.00,,CLR,0.00,VWS V14.01,2013-01-20 06:31:00,
2013-01-20 00:32:00,41.7,30.4,30.06,NW,311,4.0,14.0,64,0.00,,CLR,0.00,VWS V14.01,2013-01-20 06:32:00,
2013-01-20 00:33:00,41.7,30.4,30.06,NW,324,7.0,14.0,64,0.00,,CLR,0.00,VWS V14.01,2013-01-20 06:33:00,
2013-01-20 00:34:00,41.5,30.2,30.06,NW,319,7.0,14.0,64,0.00,,CLR,0.00,VWS V14.01,2013-01-20 06:34:00,
2013-01-20 00:36:00,41.4,30.1,30.06,NW,316,8.0,14.0,64,0.00,,CLR,0.00,VWS V14.01,2013-01-20 06:36:00,
2013-01-20 00:38:00,41.2,30.3,30.06,NW,318,7.0,14.0,65,0.00,,CLR,0.00,VWS V14.01,2013-01-20 06:38:00,
2013-01-20 00:39:00,41.2,30.3,30.06,NNW,348,7.0,14.0,65,0.00,,CLR,0.00,VWS V14.01,2013-01-20 06:39:00,
2013-01-20 00:41:00,41.1,30.2,30.06,NNW,333,7.0,14.0,65,0.00,,CLR,0.00,VWS V14.01,2013-01-20 06:41:00,
2013-01-20 00:43:00,41.0,30.1,30.06,NW,323,2.0,14.0,65,0.00,,CLR,0.00,VWS V14.01,2013-01-20 06:43:00,
2013-01-20 00:44:00,41.0,30.5,30.07,WNW,293,10.0,15.0,66,0.00,,CLR,0.00,VWS V14.01,2013-01-20 06:44:00,
2013-01-20 00:47:00,40.8,30.3,30.07,WNW,302,0.0,15.0,66,0.00,,CLR,0.00,VWS V14.01,2013-01-20 06:47:00,
2013-01-20 00:48:00,40.7,30.2,30.07,NW,311,6.0,15.0,66,0.00,,CLR,0.00,VWS V14.01,2013-01-20 06:48:00,
2013-01-20 00:49:00,40.7,30.2,30.07,NW,310,0.0,15.0,66,0.00,,CLR,0.00,VWS V14.01,2013-01-20 06:49:00,
2013-01-20 00:52:00,40.5,30.4,30.07,NNW,329,11.0,17.0,67,0.00,,CLR,0.00,VWS V14.01,2013-01-20 06:52:00,
2013-01-20 00:53:00,40.5,30.4,30.07,NW,308,6.0,17.0,67,0.00,,CLR,0.00,VWS V14.01,2013-01-20 06:53:00,
2013-01-20 00:54:00,40.5,30.4,30.07,NNW,338,3.0,17.0,67,0.00,,CLR,0.00,VWS V14.01,2013-01-20 06:54:00,
2013-01-20 00:57:00,40.4,30.3,30.07,NNW,332,10.0,17.0,67,0.00,,CLR,0.00,VWS V14.01,2013-01-20 06:57:00,
2013-01-20 00:58:00,40.4,30.3,30.07,NW,324,10.0,17.0,67,0.00,,CLR,0.00,VWS V14.01,2013-01-20 06:58:00,
2013-01-20 00:59:00,40.2,30.1,30.08,WNW,292,2.0,17.0,67,0.00,,CLR,0.00,VWS V14.01,2013-01-20 06:59:00,
2013-01-20 01:00:00,40.2,30.1,30.08,WNW,291,4.0,17.0,67,0.00,,,0.00,VWS V14.01,2013-01-20 07:00:00,
2013-01-20 01:02:00,40.2,30.1,30.08,NW,326,8.0,11.0,67,0.00,,CLR,0.00,VWS V14.01,2013-01-20 07:02:00,
2013-01-20 01:03:00,40.1,30.4,30.08,NW,311,4.0,13.0,68,0.00,,CLR,0.00,VWS V14.01,2013-01-20 07:03:00,
2013-01-20 01:04:00,40.1,30.4,30.08,WNW,300,5.0,13.0,68,0.00,,CLR,0.00,VWS V14.01,2013-01-20 07:04:00,
2013-01-20 01:07:00,40.0,30.3,30.08,NW,326,5.0,13.0,68,0.00,,CLR,0.00,VWS V14.01,2013-01-20 07:07:00,
2013-01-20 01:08:00,39.8,30.1,30.08,NW,323,4.0,13.0,68,0.00,,CLR,0.00,VWS V14.01,2013-01-20 07:08:00,
2013-01-20 01:09:00,39.8,30.1,30.08,NNW,331,3.0,13.0,68,0.00,,CLR,0.00,VWS V14.01,2013-01-20 07:09:00,
2013-01-20 01:12:00,39.7,30.0,30.08,NW,320,0.0,13.0,68,0.00,,CLR,0.00,VWS V14.01,2013-01-20 07:12:00,
2013-01-20 01:14:00,39.7,30.4,30.08,WNW,302,4.0,13.0,69,0.00,,CLR,0.00,VWS V14.01,2013-01-20 07:14:00,
2013-01-20 01:15:00,39.5,30.2,30.08,WNW,296,0.0,13.0,69,0.00,,CLR,0.00,VWS V14.01,2013-01-20 07:15:00,
2013-01-20 01:17:00,39.5,30.2,30.08,WNW,300,3.0,14.0,69,0.00,,CLR,0.00,VWS V14.01,2013-01-20 07:17:00,
2013-01-20 01:19:00,39.4,28.6,30.08,WNW,292,4.0,14.0,65,0.00,,CLR,0.00,VWS V14.01,2013-01-20 07:19:00,
2013-01-20 01:20:00,39.4,30.1,30.08,NNW,329,1.0,14.0,69,0.00,,CLR,0.00,VWS V14.01,2013-01-20 07:20:00,
2013-01-20 01:22:00,39.4,30.1,30.08,West,263,7.0,15.0,69,0.00,,CLR,0.00,VWS V14.01,2013-01-20 07:22:00,
2013-01-20 01:24:00,39.2,29.9,30.08,WNW,294,4.0,15.0,69,0.00,,CLR,0.00,VWS V14.01,2013-01-20 07:24:00,
2013-01-20 01:25:00,39.2,29.9,30.08,NNW,327,9.0,15.0,69,0.00,,CLR,0.00,VWS V14.01,2013-01-20 07:25:00,
2013-01-20 01:27:00,39.1,29.8,30.08,NW,304,0.0,15.0,69,0.00,,CLR,0.00,VWS V14.01,2013-01-20 07:27:00,
2013-01-20 01:29:00,39.1,29.8,30.09,NW,322,4.0,15.0,69,0.00,,CLR,0.00,VWS V14.01,2013-01-20 07:29:00,
2013-01-20 01:30:00,39.1,29.8,30.09,WNW,298,0.0,0.0,69,0.00,,CLR,0.00,VWS V14.01,2013-01-20 07:30:00,
2013-01-20 01:32:00,39.0,29.7,30.09,NNW,346,2.0,7.0,69,0.00,,CLR,0.00,VWS V14.01,2013-01-20 07:32:00,
2013-01-20 01:34:00,38.8,29.5,30.09,NW,310,0.0,7.0,69,0.00,,CLR,0.00,VWS V14.01,2013-01-20 07:34:00,
2013-01-20 01:35:00,38.8,29.5,30.09,NNW,327,0.0,7.0,69,0.00,,CLR,0.00,VWS V14.01,2013-01-20 07:35:00,
2013-01-20 01:38:00,38.7,29.4,30.09,NW,319,3.0,7.0,69,0.00,,CLR,0.00,VWS V14.01,2013-01-20 07:38:00,
2013-01-20 01:39:00,38.7,29.8,30.09,WNW,298,5.0,7.0,70,0.00,,CLR,0.00,VWS V14.01,2013-01-20 07:39:00,
2013-01-20 01:41:00,38.7,29.8,30.09,NW,311,5.0,8.0,70,0.00,,CLR,0.00,VWS V14.01,2013-01-20 07:41:00,
2013-01-20 01:43:00,38.5,29.6,30.09,NW,305,0.0,8.0,70,0.00,,CLR,0.00,VWS V14.01,2013-01-20 07:43:00,
2013-01-20 01:44:00,38.5,29.6,30.10,NW,306,1.0,8.0,70,0.00,,CLR,0.00,VWS V14.01,2013-01-20 07:44:00,
2013-01-20 01:45:00,38.5,29.6,30.10,WNW,301,0.0,8.0,70,0.00,,CLR,0.00,VWS V14.01,2013-01-20 07:45:00,
2013-01-20 01:48:00,38.4,29.5,30.10,WNW,297,0.0,8.0,70,0.00,,CLR,0.00,VWS V14.01,2013-01-20 07:48:00,
2013-01-20 01:49:00,38.4,29.5,30.10,NW,304,2.0,8.0,70,0.00,,CLR,0.00,VWS V14.01,2013-01-20 07:49:00,
2013-01-20 01:50:00,38.4,29.5,30.10,WNW,284,3.0,8.0,70,0.00,,CLR,0.00,VWS V14.01,2013-01-20 07:50:00,
2013-01-20 01:51:00,38.4,29.5,30.10,NW,304,1.0,8.0,70,0.00,,CLR,0.00,VWS V14.01,2013-01-20 07:51:00,
2013-01-20 01:53:00,38.2,29.3,30.10,WNW,285,0.0,8.0,70,0.00,,CLR,0.00,VWS V14.01,2013-01-20 07:53:00,
2013-01-20 01:54:00,38.2,29.3,30.10,WNW,286,0.0,8.0,70,0.00,,CLR,0.00,VWS V14.01,2013-01-20 07:54:00,
2013-01-20 01:55:00,38.2,29.3,30.10,NNW,332,2.0,8.0,70,0.00,,CLR,0.00,VWS V14.01,2013-01-20 07:55:00,
2013-01-20 01:56:00,38.1,29.2,30.10,NW,315,0.0,8.0,70,0.00,,CLR,0.00,VWS V14.01,2013-01-20 07:56:00,
2013-01-20 01:58:00,37.9,29.4,30.10,WNW,303,0.0,8.0,71,0.00,,CLR,0.00,VWS V14.01,2013-01-20 07:58:00,
2013-01-20 02:00:00,37.9,29.4,30.10,WNW,300,6.0,6.0,71,0.00,,CLR,0.00,VWS V14.01,2013-01-20 08:00:00,
2013-01-20 02:01:00,37.9,29.4,30.10,NW,317,2.0,6.0,71,0.00,,CLR,0.00,VWS V14.01,2013-01-20 08:01:00,
2013-01-20 02:03:00,37.8,29.3,30.10,NW,311,0.0,6.0,71,0.00,,CLR,0.00,VWS V14.01,2013-01-20 08:03:00,
2013-01-20 02:05:00,37.7,29.2,30.10,NW,306,1.0,6.0,71,0.00,,CLR,0.00,VWS V14.01,2013-01-20 08:05:00,
2013-01-20 02:08:00,37.5,29.3,30.10,NNW,329,3.0,10.0,72,0.00,,CLR,0.00,VWS V14.01,2013-01-20 08:08:00,
2013-01-20 02:10:00,37.5,29.3,30.10,NNW,329,11.0,12.0,72,0.00,,CLR,0.00,VWS V14.01,2013-01-20 08:10:00,
2013-01-20 02:13:00,37.5,28.6,30.10,NNE,19,12.0,15.0,70,0.00,,CLR,0.00,VWS V14.01,2013-01-20 08:13:00,
2013-01-20 02:15:00,37.5,28.3,30.12,WNW,288,10.0,16.0,69,0.00,,CLR,0.00,VWS V14.01,2013-01-20 08:15:00,
2013-01-20 02:16:00,37.5,28.3,30.12,NNW,348,18.0,18.0,69,0.00,,CLR,0.00,VWS V14.01,2013-01-20 08:16:00,
2013-01-20 02:19:00,37.2,26.5,30.12,NNW,333,7.0,19.0,65,0.00,,CLR,0.00,VWS V14.01,2013-01-20 08:19:00,
2013-01-20 02:20:00,37.2,25.4,30.12,WNW,286,6.0,19.0,62,0.00,,CLR,0.00,VWS V14.01,2013-01-20 08:20:00,
2013-01-20 02:21:00,37.2,25.4,30.12,NNW,328,6.0,19.0,62,0.00,,CLR,0.00,VWS V14.01,2013-01-20 08:21:00,
2013-01-20 02:24:00,37.1,24.5,30.12,NE,34,5.0,19.0,60,0.00,,CLR,0.00,VWS V14.01,2013-01-20 08:24:00,
2013-01-20 02:25:00,36.9,24.3,30.12,North,350,5.0,19.0,60,0.00,,CLR,0.00,VWS V14.01,2013-01-20 08:25:00,
2013-01-20 02:26:00,36.9,24.3,30.12,NW,317,10.0,19.0,60,0.00,,CLR,0.00,VWS V14.01,2013-01-20 08:26:00,
2013-01-20 02:29:00,36.7,23.3,30.13,WNW,289,6.0,19.0,58,0.00,,CLR,0.00,VWS V14.01,2013-01-20 08:29:00,
2013-01-20 02:30:00,36.7,23.3,30.13,NW,323,5.0,9.0,58,0.00,,CLR,0.00,VWS V14.01,2013-01-20 08:30:00,
2013-01-20 02:31:00,36.7,23.3,30.13,NW,317,3.0,10.0,58,0.00,,CLR,0.00,VWS V14.01,2013-01-20 08:31:00,
2013-01-20 02:34:00,36.4,23.5,30.13,NW,314,3.0,14.0,59,0.00,,CLR,0.00,VWS V14.01,2013-01-20 08:34:00,
2013-01-20 02:35:00,36.4,23.5,30.13,WNW,296,5.0,14.0,59,0.00,,CLR,0.00,VWS V14.01,2013-01-20 08:35:00,
2013-01-20 02:36:00,36.2,23.3,30.13,NNW,336,12.0,14.0,59,0.00,,CLR,0.00,VWS V14.01,2013-01-20 08:36:00,
2013-01-20 02:40:00,35.8,24.5,30.13,North,355,4.0,22.0,63,0.00,,CLR,0.00,VWS V14.01,2013-01-20 08:40:00,
2013-01-20 02:41:00,35.7,24.7,30.13,NNE,13,5.0,22.0,64,0.00,,CLR,0.00,VWS V14.01,2013-01-20 08:41:00,
2013-01-20 02:45:00,35.1,25.3,30.15,North,5,8.0,22.0,67,0.00,,CLR,0.00,VWS V14.01,2013-01-20 08:45:00,
2013-01-20 02:46:00,34.9,25.4,30.15,NW,310,17.0,22.0,68,0.00,,CLR,0.00,VWS V14.01,2013-01-20 08:46:00,
2013-01-20 02:50:00,33.7,25.3,30.15,NNW,339,6.0,22.0,71,0.00,,CLR,0.00,VWS V14.01,2013-01-20 08:50:00,
2013-01-20 02:51:00,33.7,25.3,30.15,NNW,337,11.0,22.0,71,0.00,,CLR,0.00,VWS V14.01,2013-01-20 08:51:00,
2013-01-20 02:56:00,33.0,25.3,30.15,NW,312,14.0,22.0,73,0.00,,CLR,0.00,VWS V14.01,2013-01-20 08:56:00,
2013-01-20 02:57:00,32.7,25.0,30.15,NW,326,12.0,22.0,73,0.00,,CLR,0.00,VWS V14.01,2013-01-20 08:57:00,
2013-01-20 03:00:00,32.4,25.0,30.16,NNW,333,6.0,22.0,74,0.00,,,0.00,VWS V14.01,2013-01-20 09:00:00,
2013-01-20 03:01:00,32.3,25.3,30.16,NNW,331,14.0,17.0,75,0.00,,CLR,0.00,VWS V14.01,2013-01-20 09:01:00,
2013-01-20 03:02:00,32.1,25.1,30.16,NW,306,14.0,19.0,75,0.00,,CLR,0.00,VWS V14.01,2013-01-20 09:02:00,
2013-01-20 03:06:00,31.5,24.5,30.16,NNW,338,9.0,24.0,75,0.00,,CLR,0.00,VWS V14.01,2013-01-20 09:06:00,
2013-01-20 03:07:00,31.5,24.5,30.16,NNW,327,14.0,24.0,75,0.00,,CLR,0.00,VWS V14.01,2013-01-20 09:07:00,
2013-01-20 03:11:00,30.9,23.3,30.16,NW,307,13.0,24.0,73,0.00,,CLR,0.00,VWS V14.01,2013-01-20 09:11:00,
2013-01-20 03:12:00,30.8,23.2,30.16,NW,323,4.0,24.0,73,0.00,,CLR,0.00,VWS V14.01,2013-01-20 09:12:00,
2013-01-20 03:16:00,30.5,22.9,30.16,North,355,12.0,24.0,73,0.00,,CLR,0.00,VWS V14.01,2013-01-20 09:16:00,
2013-01-20 03:17:00,30.5,22.9,30.16,NNW,338,11.0,24.0,73,0.00,,CLR,0.00,VWS V14.01,2013-01-20 09:17:00,
2013-01-20 03:21:00,30.2,22.6,30.16,NNW,332,7.0,24.0,73,0.00,,CLR,0.00,VWS V14.01,2013-01-20 09:21:00,
2013-01-20 03:22:00,30.0,22.4,30.16,NNW,327,8.0,24.0,73,0.00,,CLR,0.00,VWS V14.01,2013-01-20 09:22:00,
2013-01-20 03:26:00,29.9,22.3,30.16,NW,318,9.0,24.0,73,0.00,,CLR,0.00,VWS V14.01,2013-01-20 09:26:00,
2013-01-20 03:27:00,29.9,22.3,30.16,NW,312,9.0,24.0,73,0.00,,CLR,0.00,VWS V14.01,2013-01-20 09:27:00,
2013-01-20 03:28:00,29.7,22.1,30.16,NW,314,9.0,24.0,73,0.00,,CLR,0.00,VWS V14.01,2013-01-20 09:28:00,
2013-01-20 03:30:00,29.7,22.1,30.17,NNW,333,14.0,24.0,73,0.00,,,0.00,VWS V14.01,2013-01-20 09:30:00,
2013-01-20 03:32:00,29.7,22.1,30.17,NW,323,5.0,14.0,73,0.00,,CLR,0.00,VWS V14.01,2013-01-20 09:32:00,
2013-01-20 03:33:00,29.6,22.0,30.17,NNW,344,2.0,14.0,73,0.00,,CLR,0.00,VWS V14.01,2013-01-20 09:33:00,
2013-01-20 03:37:00,29.4,21.8,30.17,NNW,338,5.0,15.0,73,0.00,,CLR,0.00,VWS V14.01,2013-01-20 09:37:00,
2013-01-20 03:38:00,29.4,21.8,30.17,North,5,7.0,15.0,73,0.00,,CLR,0.00,VWS V14.01,2013-01-20 09:38:00,
2013-01-20 03:42:00,29.3,21.4,30.17,NNW,332,7.0,18.0,72,0.00,,CLR,0.00,VWS V14.01,2013-01-20 09:42:00,
2013-01-20 03:43:00,29.3,21.4,30.17,NW,325,11.0,18.0,72,0.00,,CLR,0.00,VWS V14.01,2013-01-20 09:43:00,
2013-01-20 03:47:00,29.2,21.3,30.18,NNW,330,9.0,18.0,72,0.00,,CLR,0.00,VWS V14.01,2013-01-20 09:47:00,
2013-01-20 03:48:00,29.2,21.3,30.18,WNW,289,1.0,18.0,72,0.00,,CLR,0.00,VWS V14.01,2013-01-20 09:48:00,
2013-01-20 03:52:00,29.0,21.1,30.18,NW,313,6.0,21.0,72,0.00,,CLR,0.00,VWS V14.01,2013-01-20 09:52:00,
2013-01-20 03:53:00,29.2,21.3,30.18,NW,313,5.0,21.0,72,0.00,,CLR,0.00,VWS V14.01,2013-01-20 09:53:00,
2013-01-20 03:57:00,29.0,20.5,30.18,NW,322,11.0,21.0,70,0.00,,CLR,0.00,VWS V14.01,2013-01-20 09:57:00,
2013-01-20 03:58:00,29.0,20.5,30.18,NNW,344,12.0,21.0,70,0.00,,CLR,0.00,VWS V14.01,2013-01-20 09:58:00,
2013-01-20 04:00:00,29.0,20.1,30.18,NNW,330,12.0,21.0,69,0.00,,,0.00,VWS V14.01,2013-01-20 10:00:00,
2013-01-20 04:03:00,29.0,20.1,30.18,NW,316,7.0,15.0,69,0.00,,CLR,0.00,VWS V14.01,2013-01-20 10:03:00,
2013-01-20 04:04:00,29.0,20.1,30.18,NNW,336,4.0,16.0,69,0.00,,CLR,0.00,VWS V14.01,2013-01-20 10:04:00,
2013-01-20 04:08:00,28.9,20.0,30.18,NNW,339,12.0,16.0,69,0.00,,CLR,0.00,VWS V14.01,2013-01-20 10:08:00,
2013-01-20 04:09:00,28.7,19.8,30.18,NW,306,3.0,16.0,69,0.00,,CLR,0.00,VWS V14.01,2013-01-20 10:09:00,
2013-01-20 04:13:00,28.3,18.8,30.18,North,360,9.0,16.0,67,0.00,,CLR,0.00,VWS V14.01,2013-01-20 10:13:00,
2013-01-20 04:14:00,28.1,18.6,30.19,North,355,10.0,17.0,67,0.00,,CLR,0.00,VWS V14.01,2013-01-20 10:14:00,
2013-01-20 04:18:00,27.7,17.5,30.19,NW,315,7.0,17.0,65,0.00,,CLR,0.00,VWS V14.01,2013-01-20 10:18:00,
2013-01-20 04:19:00,27.5,17.3,30.19,WNW,290,11.0,21.0,65,0.00,,CLR,0.00,VWS V14.01,2013-01-20 10:19:00,
2013-01-20 04:23:00,27.2,16.3,30.19,NNW,346,13.0,21.0,63,0.00,,CLR,0.00,VWS V14.01,2013-01-20 10:23:00,
2013-01-20 04:24:00,27.2,15.9,30.19,NW,315,12.0,21.0,62,0.00,,CLR,0.00,VWS V14.01,2013-01-20 10:24:00,
2013-01-20 04:28:00,26.9,14.5,30.19,NNW,333,10.0,23.0,59,0.00,,CLR,0.00,VWS V14.01,2013-01-20 10:28:00,
2013-01-20 04:29:00,26.9,14.5,30.20,NW,312,12.0,23.0,59,0.00,,CLR,0.00,VWS V14.01,2013-01-20 10:29:00,
2013-01-20 04:30:00,26.9,14.5,30.20,NNW,338,10.0,23.0,59,0.00,,,0.00,VWS V14.01,2013-01-20 10:30:00,
2013-01-20 04:33:00,26.9,13.7,30.20,NW,315,12.0,14.0,57,0.00,,CLR,0.00,VWS V14.01,2013-01-20 10:33:00,
2013-01-20 04:34:00,26.9,13.7,30.20,NW,305,6.0,14.0,57,0.00,,CLR,0.00,VWS V14.01,2013-01-20 10:34:00,
2013-01-20 04:38:00,26.8,12.8,30.20,NNW,348,13.0,17.0,55,0.00,,CLR,0.00,VWS V14.01,2013-01-20 10:38:00,
2013-01-20 04:39:00,26.8,12.8,30.20,NW,322,12.0,17.0,55,0.00,,CLR,0.00,VWS V14.01,2013-01-20 10:39:00,
2013-01-20 04:44:00,26.6,12.2,30.20,NNW,329,10.0,17.0,54,0.00,,CLR,0.00,VWS V14.01,2013-01-20 10:44:00,
2013-01-20 04:49:00,26.6,10.9,30.20,WNW,288,10.0,24.0,51,0.00,,CLR,0.00,VWS V14.01,2013-01-20 10:49:00,
2013-01-20 04:50:00,26.6,10.9,30.20,NNW,342,21.0,24.0,51,0.00,,CLR,0.00,VWS V14.01,2013-01-20 10:50:00,
2013-01-20 04:54:00,26.5,11.3,30.20,NW,323,12.0,24.0,52,0.00,,CLR,0.00,VWS V14.01,2013-01-20 10:54:00,
2013-01-20 04:55:00,26.5,11.3,30.20,NNW,329,11.0,24.0,52,0.00,,CLR,0.00,VWS V14.01,2013-01-20 10:55:00,
2013-01-20 04:59:00,26.3,11.5,30.21,NNE,22,3.0,24.0,53,0.00,,CLR,0.00,VWS V14.01,2013-01-20 10:59:00,
2013-01-20 05:00:00,26.3,11.5,30.21,WNW,285,3.0,13.0,53,0.00,,CLR,0.00,VWS V14.01,2013-01-20 11:00:00,
2013-01-20 05:04:00,26.3,11.9,30.21,NNW,336,1.0,15.0,54,0.00,,CLR,0.00,VWS V14.01,2013-01-20 11:04:00,
2013-01-20 05:05:00,26.2,11.8,30.21,NNW,330,8.0,15.0,54,0.00,,CLR,0.00,VWS V14.01,2013-01-20 11:05:00,
2013-01-20 05:09:00,26.2,12.2,30.21,NW,317,6.0,18.0,55,0.00,,CLR,0.00,VWS V14.01,2013-01-20 11:09:00,
2013-01-20 05:10:00,26.2,12.2,30.21,NNW,335,13.0,18.0,55,0.00,,CLR,0.00,VWS V14.01,2013-01-20 11:10:00,
2013-01-20 05:14:00,26.0,12.1,30.21,NNW,339,4.0,18.0,55,0.00,,CLR,0.00,VWS V14.01,2013-01-20 11:14:00,
2013-01-20 05:15:00,26.0,12.1,30.21,WNW,283,11.0,18.0,55,0.00,,CLR,0.00,VWS V14.01,2013-01-20 11:15:00,
2013-01-20 05:19:00,26.0,11.6,30.21,NNW,330,6.0,18.0,54,0.00,,CLR,0.00,VWS V14.01,2013-01-20 11:19:00,
2013-01-20 05:20:00,26.0,11.6,30.21,NNW,347,6.0,18.0,54,0.00,,CLR,0.00,VWS V14.01,2013-01-20 11:20:00,
2013-01-20 05:24:00,25.9,10.7,30.21,NW,309,4.0,18.0,52,0.00,,CLR,0.00,VWS V14.01,2013-01-20 11:24:00,
2013-01-20 05:25:00,25.9,10.7,30.21,NW,319,2.0,18.0,52,0.00,,CLR,0.00,VWS V14.01,2013-01-20 11:25:00,
2013-01-20 05:29:00,25.7,9.6,30.21,WNW,286,3.0,18.0,50,0.00,,CLR,0.00,VWS V14.01,2013-01-20 11:29:00,
2013-01-20 05:30:00,25.7,9.6,30.21,NW,323,2.0,9.0,50,0.00,,CLR,0.00,VWS V14.01,2013-01-20 11:30:00,
2013-01-20 05:31:00,25.7,9.6,30.21,NW,323,2.0,9.0,50,0.00,,CLR,0.00,VWS V14.01,2013-01-20 11:31:00,
2013-01-20 05:34:00,25.6,9.1,30.21,NW,309,8.0,20.0,49,0.00,,CLR,0.00,VWS V14.01,2013-01-20 11:34:00,
2013-01-20 05:35:00,25.6,9.1,30.21,NW,321,4.0,20.0,49,0.00,,CLR,0.00,VWS V14.01,2013-01-20 11:35:00,
2013-01-20 05:36:00,25.5,9.0,30.21,NW,309,9.0,20.0,49,0.00,,CLR,0.00,VWS V14.01,2013-01-20 11:36:00,
2013-01-20 05:39:00,25.3,7.9,30.21,WNW,286,2.0,20.0,47,0.00,,CLR,0.00,VWS V14.01,2013-01-20 11:39:00,
2013-01-20 05:40:00,25.3,7.9,30.21,West,280,12.0,20.0,47,0.00,,CLR,0.00,VWS V14.01,2013-01-20 11:40:00,
2013-01-20 05:41:00,25.3,7.9,30.21,NNW,339,11.0,20.0,47,0.00,,CLR,0.00,VWS V14.01,2013-01-20 11:41:00,
2013-01-20 05:44:00,25.2,8.3,30.23,North,360,5.0,20.0,48,0.00,,CLR,0.00,VWS V14.01,2013-01-20 11:44:00,
2013-01-20 05:45:00,25.2,8.3,30.23,NNW,340,6.0,20.0,48,0.00,,CLR,0.00,VWS V14.01,2013-01-20 11:45:00,
2013-01-20 05:46:00,25.2,8.3,30.23,NW,316,10.0,20.0,48,0.00,,CLR,0.00,VWS V14.01,2013-01-20 11:46:00,
2013-01-20 05:49:00,25.0,8.6,30.23,NW,307,15.0,20.0,49,0.00,,CLR,0.00,VWS V14.01,2013-01-20 11:49:00,
2013-01-20 05:50:00,25.0,8.6,30.23,North,360,9.0,20.0,49,0.00,,CLR,0.00,VWS V14.01,2013-01-20 11:50:00,
2013-01-20 05:51:00,25.0,8.1,30.23,NNW,335,12.0,20.0,48,0.00,,CLR,0.00,VWS V14.01,2013-01-20 11:51:00,
2013-01-20 05:55:00,24.9,8.5,30.23,NNW,344,11.0,20.0,49,0.00,,CLR,0.00,VWS V14.01,2013-01-20 11:55:00,
2013-01-20 05:56:00,24.9,8.5,30.23,NNW,343,11.0,20.0,49,0.00,,CLR,0.00,VWS V14.01,2013-01-20 11:56:00,
2013-01-20 05:57:00,24.9,8.5,30.23,North,360,6.0,20.0,49,0.00,,CLR,0.00,VWS V14.01,2013-01-20 11:57:00,
2013-01-20 06:00:00,24.9,8.5,30.23,WNW,297,4.0,5.0,49,0.00,,CLR,0.00,VWS V14.01,2013-01-20 12:00:00,
2013-01-20 06:01:00,24.7,8.7,30.23,NNW,341,10.0,12.0,50,0.00,,CLR,0.00,VWS V14.01,2013-01-20 12:01:00,
2013-01-20 06:02:00,24.7,8.7,30.23,NW,311,5.0,12.0,50,0.00,,CLR,0.00,VWS V14.01,2013-01-20 12:02:00,
2013-01-20 06:05:00,24.7,8.7,30.23,NW,315,13.0,16.0,50,0.00,,CLR,0.00,VWS V14.01,2013-01-20 12:05:00,
2013-01-20 06:06:00,24.6,8.6,30.23,NNW,333,12.0,16.0,50,0.00,,CLR,0.00,VWS V14.01,2013-01-20 12:06:00,
2013-01-20 06:07:00,24.6,8.6,30.23,NNE,18,4.0,16.0,50,0.00,,CLR,0.00,VWS V14.01,2013-01-20 12:07:00,
2013-01-20 06:10:00,24.4,8.9,30.23,NNW,330,7.0,16.0,51,0.00,,CLR,0.00,VWS V14.01,2013-01-20 12:10:00,
2013-01-20 06:12:00,24.4,8.9,30.23,NNE,15,9.0,16.0,51,0.00,,CLR,0.00,VWS V14.01,2013-01-20 12:12:00,
2013-01-20 06:15:00,24.4,9.3,30.24,NNW,330,3.0,16.0,52,0.00,,CLR,0.00,VWS V14.01,2013-01-20 12:15:00,
2013-01-20 06:17:00,24.3,9.6,30.24,NNW,340,6.0,16.0,53,0.00,,CLR,0.00,VWS V14.01,2013-01-20 12:17:00,
2013-01-20 06:20:00,24.3,9.6,30.24,NNW,337,0.0,16.0,53,0.00,,CLR,0.00,VWS V14.01,2013-01-20 12:20:00,
2013-01-20 06:22:00,24.1,9.9,30.24,NNE,22,2.0,16.0,54,0.00,,CLR,0.00,VWS V14.01,2013-01-20 12:22:00,
2013-01-20 06:23:00,24.1,9.9,30.24,NNW,341,1.0,16.0,54,0.00,,CLR,0.00,VWS V14.01,2013-01-20 12:23:00,
2013-01-20 06:25:00,24.1,9.9,30.24,NNW,327,1.0,16.0,54,0.00,,CLR,0.00,VWS V14.01,2013-01-20 12:25:00,
2013-01-20 06:27:00,24.0,9.4,30.24,North,355,3.0,16.0,53,0.00,,CLR,0.00,VWS V14.01,2013-01-20 12:27:00,
2013-01-20 06:28:00,24.0,9.8,30.24,West,276,2.0,16.0,54,0.00,,CLR,0.00,VWS V14.01,2013-01-20 12:28:00,
2013-01-20 06:30:00,24.0,9.8,30.25,NNW,333,5.0,11.0,54,0.00,,CLR,0.00,VWS V14.01,2013-01-20 12:30:00,
2013-01-20 06:32:00,23.8,9.2,30.25,NNW,331,3.0,11.0,53,0.00,,CLR,0.00,VWS V14.01,2013-01-20 12:32:00,
2013-01-20 06:33:00,23.8,9.6,30.25,NW,314,3.0,11.0,54,0.00,,CLR,0.00,VWS V14.01,2013-01-20 12:33:00,
2013-01-20 06:35:00,23.8,9.6,30.25,NNW,329,5.0,11.0,54,0.00,,CLR,0.00,VWS V14.01,2013-01-20 12:35:00,
2013-01-20 06:37:00,23.8,9.6,30.25,NNW,344,9.0,11.0,54,0.00,,CLR,0.00,VWS V14.01,2013-01-20 12:37:00,
2013-01-20 06:38:00,23.8,9.6,30.25,NW,314,0.0,11.0,54,0.00,,CLR,0.00,VWS V14.01,2013-01-20 12:38:00,
2013-01-20 06:41:00,23.7,9.9,30.25,NW,324,2.0,11.0,55,0.00,,CLR,0.00,VWS V14.01,2013-01-20 12:41:00,
2013-01-20 06:42:00,23.7,9.9,30.25,North,350,3.0,11.0,55,0.00,,CLR,0.00,VWS V14.01,2013-01-20 12:42:00,
2013-01-20 06:43:00,23.7,9.9,30.25,NW,307,0.0,11.0,55,0.00,,CLR,0.00,VWS V14.01,2013-01-20 12:43:00,
2013-01-20 06:46:00,23.7,10.3,30.26,North,349,4.0,11.0,56,0.00,,CLR,0.00,VWS V14.01,2013-01-20 12:46:00,
2013-01-20 06:47:00,23.5,10.1,30.26,North,360,3.0,11.0,56,0.00,,CLR,0.00,VWS V14.01,2013-01-20 12:47:00,
2013-01-20 06:48:00,23.5,10.1,30.26,North,360,2.0,11.0,56,0.00,,CLR,0.00,VWS V14.01,2013-01-20 12:48:00,
2013-01-20 06:51:00,23.5,10.1,30.26,North,355,6.0,12.0,56,0.00,,CLR,0.00,VWS V14.01,2013-01-20 12:51:00,
2013-01-20 06:52:00,23.5,10.1,30.26,NNW,340,10.0,12.0,56,0.00,,CLR,0.00,VWS V14.01,2013-01-20 12:52:00,
2013-01-20 06:53:00,23.5,10.1,30.26,NNW,327,4.0,12.0,56,0.00,,CLR,0.00,VWS V14.01,2013-01-20 12:53:00,
2013-01-20 06:56:00,23.5,10.5,30.26,NW,315,0.0,12.0,57,0.00,,CLR,0.00,VWS V14.01,2013-01-20 12:56:00,
2013-01-20 06:57:00,23.4,10.4,30.26,NW,320,5.0,12.0,57,0.00,,CLR,0.00,VWS V14.01,2013-01-20 12:57:00,
2013-01-20 06:58:00,23.4,10.4,30.26,NW,310,2.0,12.0,57,0.00,,CLR,0.00,VWS V14.01,2013-01-20 12:58:00,
2013-01-20 07:00:00,23.2,7.8,30.29,NNW,338,10.0,15.0,51,0.00,,OVC041,0.00,VWS V14.01,2013-01-20 13:00:00,
2013-01-20 07:01:00,23.4,10.4,30.26,North,349,5.0,8.0,57,0.00,,CLR,0.00,VWS V14.01,2013-01-20 13:01:00,
2013-01-20 07:02:00,23.4,10.4,30.26,NNW,330,7.0,12.0,57,0.00,,CLR,0.00,VWS V14.01,2013-01-20 13:02:00,
2013-01-20 07:03:00,23.4,10.4,30.26,NNW,336,5.0,12.0,57,0.00,,CLR,0.00,VWS V14.01,2013-01-20 13:03:00,
2013-01-20 07:06:00,23.4,10.4,30.26,WNW,296,4.0,12.0,57,0.00,,CLR,0.00,VWS V14.01,2013-01-20 13:06:00,
2013-01-20 07:07:00,23.2,10.2,30.26,NNW,331,5.0,12.0,57,0.00,,CLR,0.00,VWS V14.01,2013-01-20 13:07:00,
2013-01-20 07:08:00,23.2,10.2,30.26,NNW,344,2.0,12.0,57,0.00,,CLR,0.00,VWS V14.01,2013-01-20 13:08:00,
2013-01-20 07:11:00,23.2,10.6,30.26,NW,319,7.0,12.0,58,0.00,,CLR,0.00,VWS V14.01,2013-01-20 13:11:00,
2013-01-20 07:13:00,23.2,10.6,30.26,North,355,2.0,12.0,58,0.00,,CLR,0.00,VWS V14.01,2013-01-20 13:13:00,
2013-01-20 07:14:00,23.2,10.6,30.27,NW,309,3.0,12.0,58,0.00,,CLR,0.00,VWS V14.01,2013-01-20 13:14:00,
2013-01-20 07:16:00,23.2,10.6,30.27,NW,306,6.0,12.0,58,0.00,,CLR,0.00,VWS V14.01,2013-01-20 13:16:00,
2013-01-20 07:18:00,23.2,10.6,30.27,NW,324,0.0,12.0,58,0.00,,CLR,0.00,VWS V14.01,2013-01-20 13:18:00,
2013-01-20 07:19:00,23.2,10.6,30.27,NW,324,3.0,12.0,58,0.00,,CLR,0.00,VWS V14.01,2013-01-20 13:19:00,
2013-01-20 07:22:00,23.2,10.6,30.27,NW,313,6.0,12.0,58,0.00,,CLR,0.00,VWS V14.01,2013-01-20 13:22:00,
2013-01-20 07:23:00,23.2,10.6,30.27,NW,312,0.0,12.0,58,0.00,,CLR,0.00,VWS V14.01,2013-01-20 13:23:00,
2013-01-20 07:24:00,23.2,10.6,30.27,North,355,4.0,12.0,58,0.00,,CLR,0.00,VWS V14.01,2013-01-20 13:24:00,
2013-01-20 07:27:00,23.2,10.2,30.27,NW,315,4.0,13.0,57,0.00,,CLR,0.00,VWS V14.01,2013-01-20 13:27:00,
2013-01-20 07:28:00,23.2,9.4,30.27,NNW,338,16.0,17.0,55,0.00,,CLR,0.00,VWS V14.01,2013-01-20 13:28:00,
2013-01-20 07:29:00,23.2,9.0,30.28,NNW,331,15.0,17.0,54,0.00,,CLR,0.00,VWS V14.01,2013-01-20 13:29:00,
2013-01-20 07:30:00,23.2,9.0,30.28,NW,313,14.0,17.0,54,0.00,,,0.00,VWS V14.01,2013-01-20 13:30:00,
2013-01-20 07:32:00,23.2,8.6,30.28,NW,311,8.0,14.0,53,0.00,,CLR,0.00,VWS V14.01,2013-01-20 13:32:00,
2013-01-20 07:33:00,23.2,8.6,30.28,North,355,4.0,14.0,53,0.00,,CLR,0.00,VWS V14.01,2013-01-20 13:33:00,
2013-01-20 07:34:00,23.2,8.2,30.28,NNW,331,2.0,14.0,52,0.00,,CLR,0.00,VWS V14.01,2013-01-20 13:34:00,
2013-01-20 07:37:00,23.2,7.3,30.28,North,355,3.0,15.0,50,0.00,,CLR,0.00,VWS V14.01,2013-01-20 13:37:00,
2013-01-20 07:38:00,23.2,7.3,30.28,NNW,348,6.0,15.0,50,0.00,,CLR,0.00,VWS V14.01,2013-01-20 13:38:00,
2013-01-20 07:39:00,23.2,7.3,30.28,NW,314,9.0,15.0,50,0.00,,CLR,0.00,VWS V14.01,2013-01-20 13:39:00,
2013-01-20 07:42:00,23.2,6.9,30.28,North,350,4.0,15.0,49,0.00,,CLR,0.00,VWS V14.01,2013-01-20 13:42:00,
2013-01-20 07:43:00,23.1,6.8,30.28,NNE,20,6.0,15.0,49,0.00,,CLR,0.00,VWS V14.01,2013-01-20 13:43:00,
2013-01-20 07:44:00,23.1,6.8,30.28,North,351,0.0,15.0,49,0.00,,CLR,0.00,VWS V14.01,2013-01-20 13:44:00,
2013-01-20 07:47:00,23.1,6.8,30.28,North,355,8.0,15.0,49,0.00,,CLR,0.00,VWS V14.01,2013-01-20 13:47:00,
2013-01-20 07:48:00,23.1,6.8,30.28,NNW,338,4.0,15.0,49,0.00,,CLR,0.00,VWS V14.01,2013-01-20 13:48:00,
2013-01-20 07:50:00,23.1,7.2,30.28,North,349,4.0,15.0,50,0.00,,CLR,0.00,VWS V14.01,2013-01-20 13:50:00,
2013-01-20 07:52:00,23.1,7.2,30.28,WNW,293,1.0,15.0,50,0.00,,CLR,0.00,VWS V14.01,2013-01-20 13:52:00,
2013-01-20 07:53:00,23.1,7.2,30.28,WNW,293,0.0,15.0,50,0.00,,CLR,0.00,VWS V14.01,2013-01-20 13:53:00,
2013-01-20 07:54:00,23.2,7.3,30.28,NW,312,9.0,15.0,50,0.00,,CLR,0.00,VWS V14.01,2013-01-20 13:54:00,
2013-01-20 07:55:00,23.1,7.2,30.28,NW,322,4.0,15.0,50,0.00,,CLR,0.00,VWS V14.01,2013-01-20 13:55:00,
2013-01-20 07:57:00,23.2,7.3,30.28,North,5,2.0,15.0,50,0.00,,CLR,0.00,VWS V14.01,2013-01-20 13:57:00,
2013-01-20 07:58:00,23.2,7.3,30.28,NW,323,5.0,15.0,50,0.00,,CLR,0.00,VWS V14.01,2013-01-20 13:58:00,
2013-01-20 07:59:00,23.2,7.8,30.29,NNE,20,4.0,15.0,51,0.00,,CLR,0.00,VWS V14.01,2013-01-20 13:59:00,
2013-01-20 08:00:00,23.2,7.3,30.29,North,349,9.0,10.0,50,0.00,,CLR,0.00,VWS V14.01,2013-01-20 14:00:00,
2013-01-20 08:02:00,23.2,6.9,30.29,NNW,340,10.0,17.0,49,0.00,,CLR,0.00,VWS V14.01,2013-01-20 14:02:00,
2013-01-20 08:03:00,23.2,7.3,30.29,NNW,346,11.0,17.0,50,0.00,,CLR,0.00,VWS V14.01,2013-01-20 14:03:00,
2013-01-20 08:04:00,23.2,6.9,30.29,North,355,7.0,17.0,49,0.00,,CLR,0.00,VWS V14.01,2013-01-20 14:04:00,
2013-01-20 08:05:00,23.2,6.9,30.29,NNW,343,13.0,17.0,49,0.00,,CLR,0.00,VWS V14.01,2013-01-20 14:05:00,
2013-01-20 08:08:00,23.4,7.5,30.29,NW,304,0.0,17.0,50,0.00,,CLR,0.00,VWS V14.01,2013-01-20 14:08:00,
2013-01-20 08:09:00,23.4,7.5,30.29,North,11,3.0,17.0,50,0.00,,CLR,0.00,VWS V14.01,2013-01-20 14:09:00,
2013-01-20 08:11:00,23.4,7.5,30.29,North,355,7.0,17.0,50,0.00,,CLR,0.00,VWS V14.01,2013-01-20 14:11:00,
2013-01-20 08:13:00,23.4,7.5,30.29,WNW,301,3.0,17.0,50,0.00,,CLR,0.00,VWS V14.01,2013-01-20 14:13:00,
2013-01-20 08:14:00,23.4,7.5,30.29,NW,321,2.0,17.0,50,0.00,,CLR,0.00,VWS V14.01,2013-01-20 14:14:00,
2013-01-20 08:16:00,23.4,7.9,30.29,NNW,336,2.0,17.0,51,0.00,,CLR,0.00,VWS V14.01,2013-01-20 14:16:00,
2013-01-20 08:18:00,23.4,7.9,30.29,NW,315,0.0,17.0,51,0.00,,CLR,0.00,VWS V14.01,2013-01-20 14:18:00,
2013-01-20 08:19:00,23.4,7.9,30.29,NW,315,0.0,17.0,51,0.00,,CLR,0.00,VWS V14.01,2013-01-20 14:19:00,
2013-01-20 08:21:00,23.4,7.9,30.29,NNW,347,10.0,17.0,51,0.00,,CLR,0.00,VWS V14.01,2013-01-20 14:21:00,
2013-01-20 08:23:00,23.4,7.9,30.29,NNW,336,4.0,17.0,51,0.00,,CLR,0.00,VWS V14.01,2013-01-20 14:23:00,
2013-01-20 08:24:00,23.4,7.5,30.29,NNW,347,9.0,17.0,50,0.00,,CLR,0.00,VWS V14.01,2013-01-20 14:24:00,
2013-01-20 08:25:00,23.4,7.5,30.29,North,350,7.0,17.0,50,0.00,,CLR,0.00,VWS V14.01,2013-01-20 14:25:00,
2013-01-20 08:26:00,23.2,7.3,30.29,NW,319,2.0,17.0,50,0.00,,CLR,0.00,VWS V14.01,2013-01-20 14:26:00,
2013-01-20 08:28:00,23.2,8.2,30.29,NW,323,5.0,17.0,52,0.00,,CLR,0.00,VWS V14.01,2013-01-20 14:28:00,
2013-01-20 08:29:00,23.4,8.4,30.29,North,355,3.0,17.0,52,0.00,,CLR,0.00,VWS V14.01,2013-01-20 14:29:00,
2013-01-20 08:30:00,23.4,8.4,30.29,WNW,303,8.0,8.0,52,0.00,,CLR,0.00,VWS V14.01,2013-01-20 14:30:00,
2013-01-20 08:31:00,23.4,8.4,30.29,WNW,291,7.0,11.0,52,0.00,,CLR,0.00,VWS V14.01,2013-01-20 14:31:00,
2013-01-20 08:33:00,23.4,8.4,30.29,NNW,345,6.0,11.0,52,0.00,,CLR,0.00,VWS V14.01,2013-01-20 14:33:00,
2013-01-20 08:34:00,23.4,8.4,30.29,NNW,336,10.0,12.0,52,0.00,,CLR,0.00,VWS V14.01,2013-01-20 14:34:00,
2013-01-20 08:35:00,23.4,8.4,30.29,NNW,338,10.0,12.0,52,0.00,,CLR,0.00,VWS V14.01,2013-01-20 14:35:00,
2013-01-20 08:36:00,23.2,7.8,30.29,NNW,341,11.0,13.0,51,0.00,,CLR,0.00,VWS V14.01,2013-01-20 14:36:00,
2013-01-20 08:38:00,23.2,8.2,30.29,NNW,335,1.0,13.0,52,0.00,,CLR,0.00,VWS V14.01,2013-01-20 14:38:00,
2013-01-20 08:39:00,23.2,8.6,30.29,NNW,338,5.0,13.0,53,0.00,,CLR,0.00,VWS V14.01,2013-01-20 14:39:00,
2013-01-20 08:40:00,23.2,8.2,30.29,NNW,329,6.0,13.0,52,0.00,,CLR,0.00,VWS V14.01,2013-01-20 14:40:00,
2013-01-20 08:41:00,23.2,8.2,30.29,NW,325,1.0,13.0,52,0.00,,CLR,0.00,VWS V14.01,2013-01-20 14:41:00,
2013-01-20 08:43:00,23.4,8.8,30.29,NW,315,13.0,13.0,53,0.00,,CLR,0.00,VWS V14.01,2013-01-20 14:43:00,
2013-01-20 08:45:00,23.2,8.2,30.29,North,5,5.0,17.0,52,0.00,,CLR,0.00,VWS V14.01,2013-01-20 14:45:00,
2013-01-20 08:46:00,23.2,8.2,30.29,NW,317,5.0,17.0,52,0.00,,CLR,0.00,VWS V14.01,2013-01-20 14:46:00,
2013-01-20 08:48:00,23.4,8.8,30.29,WNW,287,0.0,17.0,53,0.00,,CLR,0.00,VWS V14.01,2013-01-20 14:48:00,
2013-01-20 08:50:00,23.4,8.8,30.29,NW,325,0.0,17.0,53,0.00,,CLR,0.00,VWS V14.01,2013-01-20 14:50:00,
2013-01-20 08:51:00,23.5,8.9,30.29,North,5,4.0,17.0,53,0.00,,CLR,0.00,VWS V14.01,2013-01-20 14:51:00,
2013-01-20 08:53:00,23.5,8.5,30.29,NW,313,4.0,17.0,52,0.00,,CLR,0.00,VWS V14.01,2013-01-20 14:53:00,
2013-01-20 08:55:00,23.5,8.5,30.29,NW,322,1.0,17.0,52,0.00,,CLR,0.00,VWS V14.01,2013-01-20 14:55:00,
2013-01-20 08:56:00,23.5,8.5,30.29,NNW,344,3.0,17.0,52,0.00,,CLR,0.00,VWS V14.01,2013-01-20 14:56:00,
2013-01-20 08:58:00,23.5,8.5,30.29,NNW,346,6.0,17.0,52,0.00,,CLR,0.00,VWS V14.01,2013-01-20 14:58:00,
2013-01-20 09:00:00,23.5,8.5,30.29,NNW,338,10.0,11.0,52,0.00,,CLR,0.00,VWS V14.01,2013-01-20 15:00:00,
2013-01-20 09:02:00,23.4,8.4,30.29,North,5,5.0,14.0,52,0.00,,CLR,0.00,VWS V14.01,2013-01-20 15:02:00,
2013-01-20 09:03:00,23.4,8.8,30.29,WNW,294,8.0,14.0,53,0.00,,CLR,0.00,VWS V14.01,2013-01-20 15:03:00,
2013-01-20 09:05:00,23.5,9.3,30.29,NW,325,9.0,14.0,54,0.00,,CLR,0.00,VWS V14.01,2013-01-20 15:05:00,
2013-01-20 09:07:00,23.5,9.3,30.29,NNW,339,4.0,14.0,54,0.00,,CLR,0.00,VWS V14.01,2013-01-20 15:07:00,
2013-01-20 09:08:00,23.7,9.5,30.29,North,355,7.0,14.0,54,0.00,,CLR,0.00,VWS V14.01,2013-01-20 15:08:00,
2013-01-20 09:10:00,23.7,9.9,30.29,NNW,329,4.0,14.0,55,0.00,,CLR,0.00,VWS V14.01,2013-01-20 15:10:00,
2013-01-20 09:12:00,23.7,9.5,30.29,North,5,4.0,14.0,54,0.00,,CLR,0.00,VWS V14.01,2013-01-20 15:12:00,
2013-01-20 09:13:00,23.7,9.5,30.29,North,355,3.0,14.0,54,0.00,,CLR,0.00,VWS V14.01,2013-01-20 15:13:00,
2013-01-20 09:15:00,23.8,9.2,30.29,NW,321,12.0,16.0,53,0.00,,CLR,0.00,VWS V14.01,2013-01-20 15:15:00,
2013-01-20 09:16:00,23.8,9.2,30.29,NW,322,11.0,16.0,53,0.00,,CLR,0.00,VWS V14.01,2013-01-20 15:16:00,
2013-01-20 09:17:00,23.7,9.1,30.29,NW,318,4.0,16.0,53,0.00,,CLR,0.00,VWS V14.01,2013-01-20 15:17:00,
2013-01-20 09:18:00,23.7,9.5,30.29,NNW,335,3.0,16.0,54,0.00,,CLR,0.00,VWS V14.01,2013-01-20 15:18:00,
2013-01-20 09:21:00,23.8,9.6,30.29,NNW,345,7.0,16.0,54,0.00,,CLR,0.00,VWS V14.01,2013-01-20 15:21:00,
2013-01-20 09:22:00,23.8,9.6,30.29,NE,44,10.0,16.0,54,0.00,,CLR,0.00,VWS V14.01,2013-01-20 15:22:00,
2013-01-20 09:24:00,23.8,9.6,30.29,NNE,30,4.0,16.0,54,0.00,,CLR,0.00,VWS V14.01,2013-01-20 15:24:00,
2013-01-20 09:26:00,24.0,9.8,30.29,NNW,340,0.0,16.0,54,0.00,,CLR,0.00,VWS V14.01,2013-01-20 15:26:00,
2013-01-20 09:27:00,24.0,9.8,30.29,NNW,348,2.0,16.0,54,0.00,,CLR,0.00,VWS V14.01,2013-01-20 15:27:00,
2013-01-20 09:29:00,24.3,10.1,30.31,North,9,9.0,16.0,54,0.00,,CLR,0.00,VWS V14.01,2013-01-20 15:29:00,
2013-01-20 09:30:00,24.3,9.6,30.31,NNW,336,6.0,16.0,53,0.00,,,0.00,VWS V14.01,2013-01-20 15:30:00,
2013-01-20 09:31:00,24.3,9.6,30.31,North,5,4.0,7.0,53,0.00,,CLR,0.00,VWS V14.01,2013-01-20 15:31:00,
2013-01-20 09:32:00,24.3,9.6,30.31,North,349,6.0,10.0,53,0.00,,CLR,0.00,VWS V14.01,2013-01-20 15:32:00,
2013-01-20 09:34:00,24.3,10.1,30.31,NNW,331,0.0,10.0,54,0.00,,CLR,0.00,VWS V14.01,2013-01-20 15:34:00,
2013-01-20 09:36:00,24.3,10.5,30.31,NNE,19,2.0,10.0,55,0.00,,CLR,0.00,VWS V14.01,2013-01-20 15:36:00,
2013-01-20 09:37:00,24.3,10.9,30.31,NW,323,3.0,10.0,56,0.00,,CLR,0.00,VWS V14.01,2013-01-20 15:37:00,
2013-01-20 09:39:00,24.1,11.1,30.31,WNW,302,1.0,10.0,57,0.00,,CLR,0.00,VWS V14.01,2013-01-20 15:39:00,
2013-01-20 09:41:00,24.1,11.1,30.31,NW,320,4.0,11.0,57,0.00,,CLR,0.00,VWS V14.01,2013-01-20 15:41:00,
2013-01-20 09:42:00,24.1,11.5,30.31,NNE,13,2.0,11.0,58,0.00,,CLR,0.00,VWS V14.01,2013-01-20 15:42:00,
2013-01-20 09:44:00,24.1,11.5,30.31,NW,304,5.0,11.0,58,0.00,,CLR,0.00,VWS V14.01,2013-01-20 15:44:00,
2013-01-20 09:46:00,24.1,11.5,30.31,NNW,329,7.0,11.0,58,0.00,,CLR,0.00,VWS V14.01,2013-01-20 15:46:00,
2013-01-20 09:47:00,24.0,11.4,30.31,NNW,336,0.0,11.0,58,0.00,,CLR,0.00,VWS V14.01,2013-01-20 15:47:00,
2013-01-20 09:50:00,24.0,11.4,30.31,NW,311,10.0,11.0,58,0.00,,CLR,0.00,VWS V14.01,2013-01-20 15:50:00,
2013-01-20 09:51:00,23.8,10.4,30.31,NW,312,9.0,12.0,56,0.00,,CLR,0.00,VWS V14.01,2013-01-20 15:51:00,
2013-01-20 09:52:00,24.0,10.6,30.31,NNW,344,12.0,12.0,56,0.00,,CLR,0.00,VWS V14.01,2013-01-20 15:52:00,
2013-01-20 09:55:00,24.0,10.6,30.31,North,9,3.0,12.0,56,0.00,,CLR,0.00,VWS V14.01,2013-01-20 15:55:00,
2013-01-20 09:56:00,24.1,10.7,30.31,NNW,330,4.0,12.0,56,0.00,,CLR,0.00,VWS V14.01,2013-01-20 15:56:00,
2013-01-20 09:57:00,24.1,10.7,30.31,NNW,337,3.0,12.0,56,0.00,,CLR,0.00,VWS V14.01,2013-01-20 15:57:00,
2013-01-20 10:00:00,24.4,11.0,30.31,NW,319,3.0,4.0,56,0.00,,CLR,0.00,VWS V14.01,2013-01-20 16:00:00,
2013-01-20 10:01:00,24.4,10.6,30.31,North,349,3.0,4.0,55,0.00,,CLR,0.00,VWS V14.01,2013-01-20 16:01:00,
2013-01-20 10:02:00,24.6,10.8,30.31,North,5,5.0,7.0,55,0.00,,CLR,0.00,VWS V14.01,2013-01-20 16:02:00,
2013-01-20 10:05:00,24.6,10.3,30.31,NNE,22,2.0,9.0,54,0.00,,CLR,0.00,VWS V14.01,2013-01-20 16:05:00,
2013-01-20 10:06:00,24.6,10.8,30.31,North,355,0.0,9.0,55,0.00,,CLR,0.00,VWS V14.01,2013-01-20 16:06:00,
2013-01-20 10:07:00,24.7,10.9,30.31,North,350,5.0,9.0,55,0.00,,CLR,0.00,VWS V14.01,2013-01-20 16:07:00,
2013-01-20 10:08:00,24.7,11.2,30.31,NNE,12,4.0,9.0,56,0.00,,CLR,0.00,VWS V14.01,2013-01-20 16:08:00,
2013-01-20 10:10:00,24.9,10.6,30.31,NW,321,0.0,9.0,54,0.00,,CLR,0.00,VWS V14.01,2013-01-20 16:10:00,
2013-01-20 10:11:00,25.0,11.1,30.31,NNE,23,3.0,9.0,55,0.00,,CLR,0.00,VWS V14.01,2013-01-20 16:11:00,
2013-01-20 10:12:00,25.0,10.3,30.31,NNE,17,0.0,9.0,53,0.00,,CLR,0.00,VWS V14.01,2013-01-20 16:12:00,
2013-01-20 10:13:00,25.2,10.5,30.31,North,355,0.0,9.0,53,0.00,,CLR,0.00,VWS V14.01,2013-01-20 16:13:00,
2013-01-20 10:15:00,25.3,10.1,30.32,NW,313,4.0,15.0,52,0.00,,CLR,0.00,VWS V14.01,2013-01-20 16:15:00,
2013-01-20 10:16:00,25.3,10.6,30.32,NNW,329,6.0,15.0,53,0.00,,CLR,0.00,VWS V14.01,2013-01-20 16:16:00,
2013-01-20 10:17:00,25.3,10.6,30.32,NNW,327,3.0,15.0,53,0.00,,CLR,0.00,VWS V14.01,2013-01-20 16:17:00,
2013-01-20 10:18:00,25.3,11.0,30.32,NW,309,4.0,15.0,54,0.00,,CLR,0.00,VWS V14.01,2013-01-20 16:18:00,
2013-01-20 10:20:00,25.6,11.3,30.32,NNE,13,2.0,15.0,54,0.00,,CLR,0.00,VWS V14.01,2013-01-20 16:20:00,
2013-01-20 10:21:00,25.7,10.9,30.32,WNW,302,0.0,15.0,53,0.00,,CLR,0.00,VWS V14.01,2013-01-20 16:21:00,
2013-01-20 10:22:00,25.7,10.9,30.32,North,349,5.0,15.0,53,0.00,,CLR,0.00,VWS V14.01,2013-01-20 16:22:00,
2013-01-20 10:23:00,25.7,10.5,30.32,WNW,302,12.0,15.0,52,0.00,,CLR,0.00,VWS V14.01,2013-01-20 16:23:00,
2013-01-20 10:25:00,25.6,10.0,30.32,NNW,342,4.0,15.0,51,0.00,,CLR,0.00,VWS V14.01,2013-01-20 16:25:00,
2013-01-20 10:26:00,25.3,9.3,30.32,NNE,19,6.0,15.0,50,0.00,,CLR,0.00,VWS V14.01,2013-01-20 16:26:00,
2013-01-20 10:27:00,25.3,9.7,30.32,NNW,347,3.0,15.0,51,0.00,,CLR,0.00,VWS V14.01,2013-01-20 16:27:00,
2013-01-20 10:28:00,25.3,10.6,30.32,NW,311,5.0,15.0,53,0.00,,CLR,0.00,VWS V14.01,2013-01-20 16:28:00,
2013-01-20 10:30:00,25.2,10.1,30.31,NW,309,0.0,4.0,52,0.00,,CLR,0.00,VWS V14.01,2013-01-20 16:30:00,
2013-01-20 10:31:00,25.3,10.1,30.31,NNE,12,9.0,13.0,52,0.00,,CLR,0.00,VWS V14.01,2013-01-20 16:31:00,
2013-01-20 10:32:00,25.2,9.6,30.31,NW,321,13.0,13.0,51,0.00,,CLR,0.00,VWS V14.01,2013-01-20 16:32:00,
2013-01-20 10:33:00,25.2,9.6,30.31,NW,304,10.0,13.0,51,0.00,,CLR,0.00,VWS V14.01,2013-01-20 16:33:00,
2013-01-20 10:35:00,25.0,9.9,30.31,NNW,347,0.0,13.0,52,0.00,,CLR,0.00,VWS V14.01,2013-01-20 16:35:00,
2013-01-20 10:37:00,25.0,10.3,30.31,WNW,297,2.0,13.0,53,0.00,,CLR,0.00,VWS V14.01,2013-01-20 16:37:00,
2013-01-20 10:38:00,25.2,10.1,30.31,NNW,333,8.0,13.0,52,0.00,,CLR,0.00,VWS V14.01,2013-01-20 16:38:00,
2013-01-20 10:40:00,25.2,10.1,30.31,NW,321,2.0,13.0,52,0.00,,CLR,0.00,VWS V14.01,2013-01-20 16:40:00,
2013-01-20 10:42:00,25.3,10.1,30.31,NW,309,4.0,13.0,52,0.00,,CLR,0.00,VWS V14.01,2013-01-20 16:42:00,
2013-01-20 10:43:00,25.5,10.3,30.31,WNW,295,3.0,13.0,52,0.00,,CLR,0.00,VWS V14.01,2013-01-20 16:43:00,
2013-01-20 10:45:00,25.7,10.9,30.30,North,5,3.0,13.0,53,0.00,,CLR,0.00,VWS V14.01,2013-01-20 16:45:00,
2013-01-20 10:47:00,25.9,9.8,30.30,NNE,17,4.0,13.0,50,0.00,,CLR,0.00,VWS V14.01,2013-01-20 16:47:00,
2013-01-20 10:48:00,25.9,9.8,30.30,NNE,28,2.0,13.0,50,0.00,,CLR,0.00,VWS V14.01,2013-01-20 16:48:00,
2013-01-20 10:51:00,26.3,10.2,30.30,WNW,302,6.0,13.0,50,0.00,,CLR,0.00,VWS V14.01,2013-01-20 16:51:00,
2013-01-20 10:52:00,26.3,10.2,30.30,WNW,287,3.0,13.0,50,0.00,,CLR,0.00,VWS V14.01,2013-01-20 16:52:00,
2013-01-20 10:53:00,26.3,9.8,30.30,North,355,0.0,13.0,49,0.00,,CLR,0.00,VWS V14.01,2013-01-20 16:53:00,
2013-01-20 10:56:00,26.3,10.2,30.30,North,355,2.0,13.0,50,0.00,,CLR,0.00,VWS V14.01,2013-01-20 16:56:00,
2013-01-20 10:57:00,26.3,10.2,30.30,North,349,0.0,13.0,50,0.00,,CLR,0.00,VWS V14.01,2013-01-20 16:57:00,
2013-01-20 10:58:00,26.3,10.2,30.30,NNW,348,1.0,13.0,50,0.00,,CLR,0.00,VWS V14.01,2013-01-20 16:58:00,
2013-01-20 11:00:00,26.2,10.1,30.30,NW,313,2.0,13.0,50,0.00,,,0.00,VWS V14.01,2013-01-20 17:00:00,
2013-01-20 11:01:00,26.3,10.6,30.30,NNW,333,0.0,4.0,51,0.00,,CLR,0.00,VWS V14.01,2013-01-20 17:01:00,
2013-01-20 11:02:00,26.6,10.5,30.30,North,5,0.0,10.0,50,0.00,,CLR,0.00,VWS V14.01,2013-01-20 17:02:00,
2013-01-20 11:03:00,26.9,11.6,30.30,North,5,0.0,10.0,52,0.00,,CLR,0.00,VWS V14.01,2013-01-20 17:03:00,
2013-01-20 11:06:00,27.2,10.6,30.30,NW,304,0.0,10.0,49,0.00,,CLR,0.00,VWS V14.01,2013-01-20 17:06:00,
2013-01-20 11:07:00,27.2,11.0,30.30,NW,306,0.0,10.0,50,0.00,,CLR,0.00,VWS V14.01,2013-01-20 17:07:00,
2013-01-20 11:08:00,27.2,11.5,30.30,NW,306,0.0,10.0,51,0.00,,CLR,0.00,VWS V14.01,2013-01-20 17:08:00,
2013-01-20 11:11:00,27.1,10.9,30.30,NNE,31,0.0,10.0,50,0.00,,CLR,0.00,VWS V14.01,2013-01-20 17:11:00,
2013-01-20 11:12:00,27.2,11.5,30.30,North,5,1.0,10.0,51,0.00,,CLR,0.00,VWS V14.01,2013-01-20 17:12:00,
2013-01-20 11:13:00,27.2,11.0,30.30,NE,40,4.0,10.0,50,0.00,,CLR,0.00,VWS V14.01,2013-01-20 17:13:00,
2013-01-20 11:16:00,27.1,10.9,30.31,NW,323,2.0,10.0,50,0.00,,CLR,0.00,VWS V14.01,2013-01-20 17:16:00,
2013-01-20 11:17:00,26.9,11.2,30.31,North,11,4.0,10.0,51,0.00,,CLR,0.00,VWS V14.01,2013-01-20 17:17:00,
2013-01-20 11:18:00,26.9,9.4,30.31,NNE,32,5.0,10.0,47,0.00,,CLR,0.00,VWS V14.01,2013-01-20 17:18:00,
2013-01-20 11:21:00,26.8,10.7,30.31,North,360,3.0,10.0,50,0.00,,CLR,0.00,VWS V14.01,2013-01-20 17:21:00,
2013-01-20 11:22:00,27.1,10.9,30.31,NW,316,0.0,10.0,50,0.00,,CLR,0.00,VWS V14.01,2013-01-20 17:22:00,
2013-01-20 11:23:00,27.1,10.5,30.31,NNW,338,2.0,10.0,49,0.00,,CLR,0.00,VWS V14.01,2013-01-20 17:23:00,
2013-01-20 11:24:00,27.1,10.5,30.31,North,5,5.0,10.0,49,0.00,,CLR,0.00,VWS V14.01,2013-01-20 17:24:00,
2013-01-20 11:26:00,27.1,11.4,30.31,WNW,296,1.0,10.0,51,0.00,,CLR,0.00,VWS V14.01,2013-01-20 17:26:00,
2013-01-20 11:28:00,26.9,10.8,30.31,North,350,0.0,10.0,50,0.00,,CLR,0.00,VWS V14.01,2013-01-20 17:28:00,
2013-01-20 11:30:00,26.6,10.5,30.29,WNW,282,2.0,10.0,50,0.00,,,0.00,VWS V14.01,2013-01-20 17:30:00,
2013-01-20 11:31:00,26.3,10.2,30.29,WNW,292,0.0,3.0,50,0.00,,CLR,0.00,VWS V14.01,2013-01-20 17:31:00,
2013-01-20 11:33:00,26.3,10.6,30.29,NNW,333,7.0,9.0,51,0.00,,CLR,0.00,VWS V14.01,2013-01-20 17:33:00,
2013-01-20 11:34:00,26.3,10.2,30.29,NW,325,0.0,9.0,50,0.00,,CLR,0.00,VWS V14.01,2013-01-20 17:34:00,
2013-01-20 11:36:00,26.2,10.1,30.29,North,350,1.0,9.0,50,0.00,,CLR,0.00,VWS V14.01,2013-01-20 17:36:00,
2013-01-20 11:38:00,26.0,9.9,30.29,NNW,327,0.0,9.0,50,0.00,,CLR,0.00,VWS V14.01,2013-01-20 17:38:00,
2013-01-20 11:39:00,26.0,9.9,30.29,North,350,3.0,9.0,50,0.00,,CLR,0.00,VWS V14.01,2013-01-20 17:39:00,
2013-01-20 11:41:00,25.9,9.8,30.29,NW,311,0.0,9.0,50,0.00,,CLR,0.00,VWS V14.01,2013-01-20 17:41:00,
2013-01-20 11:43:00,25.9,9.8,30.28,NNW,337,4.0,9.0,50,0.00,,CLR,0.00,VWS V14.01,2013-01-20 17:43:00,
2013-01-20 11:44:00,25.9,9.8,30.28,NW,307,5.0,9.0,50,0.00,,CLR,0.00,VWS V14.01,2013-01-20 17:44:00,
2013-01-20 11:46:00,25.6,9.6,30.28,North,11,0.0,9.0,50,0.00,,CLR,0.00,VWS V14.01,2013-01-20 17:46:00,
2013-01-20 11:49:00,25.6,10.4,30.28,West,281,2.0,9.0,52,0.00,,CLR,0.00,VWS V14.01,2013-01-20 17:49:00,
2013-01-20 11:51:00,25.7,10.1,30.28,NW,307,6.0,9.0,51,0.00,,CLR,0.00,VWS V14.01,2013-01-20 17:51:00,
2013-01-20 11:54:00,25.7,9.6,30.28,NW,309,0.0,9.0,50,0.00,,CLR,0.00,VWS V14.01,2013-01-20 17:54:00,
2013-01-20 11:57:00,25.6,8.6,30.28,NW,313,4.0,13.0,48,0.00,,CLR,0.00,VWS V14.01,2013-01-20 17:57:00,
2013-01-20 11:59:00,25.6,9.1,30.28,NNW,337,3.0,13.0,49,0.00,,CLR,0.00,VWS V14.01,2013-01-20 17:59:00,
2013-01-20 12:00:00,25.6,9.1,30.28,NNW,329,11.0,13.0,49,0.00,,,0.00,VWS V14.01,2013-01-20 18:00:00,
2013-01-20 12:02:00,25.6,9.6,30.28,NW,322,13.0,15.0,50,0.00,,CLR,0.00,VWS V14.01,2013-01-20 18:02:00,
2013-01-20 12:04:00,25.5,9.5,30.28,NNW,339,7.0,15.0,50,0.00,,CLR,0.00,VWS V14.01,2013-01-20 18:04:00,
2013-01-20 12:07:00,25.5,9.9,30.28,NW,322,3.0,15.0,51,0.00,,CLR,0.00,VWS V14.01,2013-01-20 18:07:00,
2013-01-20 12:09:00,25.3,9.7,30.28,North,5,4.0,15.0,51,0.00,,CLR,0.00,VWS V14.01,2013-01-20 18:09:00,
2013-01-20 12:12:00,25.6,10.4,30.28,NNE,23,6.0,15.0,52,0.00,,CLR,0.00,VWS V14.01,2013-01-20 18:12:00,
2013-01-20 12:14:00,25.6,9.6,30.26,North,355,4.0,15.0,50,0.00,,CLR,0.00,VWS V14.01,2013-01-20 18:14:00,
2013-01-20 12:17:00,25.6,9.6,30.26,North,11,4.0,15.0,50,0.00,,CLR,0.00,VWS V14.01,2013-01-20 18:17:00,
2013-01-20 12:19:00,25.6,9.1,30.26,NNE,24,1.0,15.0,49,0.00,,CLR,0.00,VWS V14.01,2013-01-20 18:19:00,
2013-01-20 12:22:00,25.5,9.5,30.26,North,360,0.0,15.0,50,0.00,,CLR,0.00,VWS V14.01,2013-01-20 18:22:00,
2013-01-20 12:24:00,25.5,9.5,30.26,NNE,29,4.0,15.0,50,0.00,,CLR,0.00,VWS V14.01,2013-01-20 18:24:00,
2013-01-20 12:25:00,25.5,9.5,30.26,NW,313,2.0,15.0,50,0.00,,CLR,0.00,VWS V14.01,2013-01-20 18:25:00,
2013-01-20 12:28:00,25.5,10.3,30.26,North,5,5.0,15.0,52,0.00,,CLR,0.00,VWS V14.01,2013-01-20 18:28:00,
2013-01-20 12:29:00,25.5,9.9,30.25,NNW,347,3.0,15.0,51,0.00,,CLR,0.00,VWS V14.01,2013-01-20 18:29:00,
2013-01-20 12:30:00,25.5,10.3,30.25,NE,51,7.0,7.0,52,0.00,,CLR,0.00,VWS V14.01,2013-01-20 18:30:00,
2013-01-20 12:33:00,25.5,9.9,30.25,NNE,25,3.0,11.0,51,0.00,,CLR,0.00,VWS V14.01,2013-01-20 18:33:00,
2013-01-20 12:34:00,25.5,9.9,30.25,NNE,32,2.0,11.0,51,0.00,,CLR,0.00,VWS V14.01,2013-01-20 18:34:00,
2013-01-20 12:35:00,25.5,9.9,30.25,NNE,26,0.0,11.0,51,0.00,,CLR,0.00,VWS V14.01,2013-01-20 18:35:00,
2013-01-20 12:38:00,25.7,8.7,30.25,North,5,0.0,11.0,48,0.00,,CLR,0.00,VWS V14.01,2013-01-20 18:38:00,
2013-01-20 12:39:00,25.7,8.7,30.25,North,360,0.0,11.0,48,0.00,,CLR,0.00,VWS V14.01,2013-01-20 18:39:00,
2013-01-20 12:40:00,25.7,8.7,30.25,North,360,0.0,11.0,48,0.00,,CLR,0.00,VWS V14.01,2013-01-20 18:40:00,
2013-01-20 12:43:00,25.9,9.4,30.25,NNW,346,4.0,11.0,49,0.00,,CLR,0.00,VWS V14.01,2013-01-20 18:43:00,
2013-01-20 12:44:00,25.9,9.4,30.26,NW,322,0.0,11.0,49,0.00,,CLR,0.00,VWS V14.01,2013-01-20 18:44:00,
2013-01-20 12:45:00,25.9,9.4,30.26,NW,322,0.0,11.0,49,0.00,,CLR,0.00,VWS V14.01,2013-01-20 18:45:00,
2013-01-20 12:48:00,26.5,10.8,30.26,NNW,338,7.0,11.0,51,0.00,,CLR,0.00,VWS V14.01,2013-01-20 18:48:00,
2013-01-20 12:49:00,26.5,9.5,30.26,NE,35,2.0,11.0,48,0.00,,CLR,0.00,VWS V14.01,2013-01-20 18:49:00,
2013-01-20 12:50:00,26.5,9.5,30.26,WNW,289,2.0,11.0,48,0.00,,CLR,0.00,VWS V14.01,2013-01-20 18:50:00,
2013-01-20 12:53:00,27.2,11.0,30.26,NW,305,6.0,11.0,50,0.00,,CLR,0.00,VWS V14.01,2013-01-20 18:53:00,
2013-01-20 12:55:00,27.4,10.3,30.26,NW,312,1.0,11.0,48,0.00,,CLR,0.00,VWS V14.01,2013-01-20 18:55:00,
2013-01-20 12:58:00,27.7,10.6,30.26,NW,318,4.0,11.0,48,0.00,,CLR,0.00,VWS V14.01,2013-01-20 18:58:00,
2013-01-20 13:00:00,27.7,10.6,30.26,NW,317,4.0,4.0,48,0.00,,CLR,0.00,VWS V14.01,2013-01-20 19:00:00,
2013-01-20 13:01:00,27.5,10.4,30.26,NNE,16,4.0,10.0,48,0.00,,CLR,0.00,VWS V14.01,2013-01-20 19:01:00,
2013-01-20 13:03:00,27.7,10.6,30.26,NW,311,0.0,12.0,48,0.00,,CLR,0.00,VWS V14.01,2013-01-20 19:03:00,
2013-01-20 13:05:00,27.7,9.6,30.26,NW,313,7.0,12.0,46,0.00,,CLR,0.00,VWS V14.01,2013-01-20 19:05:00,
2013-01-20 13:06:00,27.7,8.6,30.26,NW,314,7.0,13.0,44,0.00,,CLR,0.00,VWS V14.01,2013-01-20 19:06:00,
2013-01-20 13:09:00,27.1,8.6,30.26,NW,315,4.0,13.0,45,0.00,,CLR,0.00,VWS V14.01,2013-01-20 19:09:00,
2013-01-20 13:10:00,26.9,8.9,30.26,NW,326,4.0,13.0,46,0.00,,CLR,0.00,VWS V14.01,2013-01-20 19:10:00,
2013-01-20 13:11:00,26.9,8.9,30.26,NNW,335,6.0,13.0,46,0.00,,CLR,0.00,VWS V14.01,2013-01-20 19:11:00,
2013-01-20 13:14:00,26.8,9.8,30.26,NNW,331,1.0,13.0,48,0.00,,CLR,0.00,VWS V14.01,2013-01-20 19:14:00,
2013-01-20 13:15:00,26.8,10.2,30.26,West,281,2.0,13.0,49,0.00,,CLR,0.00,VWS V14.01,2013-01-20 19:15:00,
2013-01-20 13:16:00,26.8,10.2,30.26,WNW,291,0.0,13.0,49,0.00,,CLR,0.00,VWS V14.01,2013-01-20 19:16:00,
2013-01-20 13:19:00,26.9,9.4,30.26,WNW,291,0.0,13.0,47,0.00,,CLR,0.00,VWS V14.01,2013-01-20 19:19:00,
2013-01-20 13:20:00,26.9,9.4,30.26,NW,325,0.0,13.0,47,0.00,,CLR,0.00,VWS V14.01,2013-01-20 19:20:00,
2013-01-20 13:21:00,27.1,9.6,30.26,NNW,327,2.0,13.0,47,0.00,,CLR,0.00,VWS V14.01,2013-01-20 19:21:00,
2013-01-20 13:24:00,26.9,9.9,30.26,NNW,329,0.0,13.0,48,0.00,,CLR,0.00,VWS V14.01,2013-01-20 19:24:00,
2013-01-20 13:25:00,27.1,10.0,30.26,NW,311,1.0,13.0,48,0.00,,CLR,0.00,VWS V14.01,2013-01-20 19:25:00,
2013-01-20 13:26:00,27.1,10.0,30.26,North,355,4.0,13.0,48,0.00,,CLR,0.00,VWS V14.01,2013-01-20 19:26:00,
2013-01-20 13:29:00,27.2,9.6,30.26,NNW,327,11.0,13.0,47,0.00,,CLR,0.00,VWS V14.01,2013-01-20 19:29:00,
2013-01-20 13:30:00,27.1,9.1,30.26,NNW,342,1.0,9.0,46,0.00,,CLR,0.00,VWS V14.01,2013-01-20 19:30:00,
2013-01-20 13:31:00,27.1,9.1,30.26,NW,314,3.0,12.0,46,0.00,,CLR,0.00,VWS V14.01,2013-01-20 19:31:00,
2013-01-20 13:34:00,26.9,8.9,30.26,NNW,331,11.0,13.0,46,0.00,,CLR,0.00,VWS V14.01,2013-01-20 19:34:00,
2013-01-20 13:35:00,26.9,8.4,30.26,NNE,22,8.0,14.0,45,0.00,,CLR,0.00,VWS V14.01,2013-01-20 19:35:00,
2013-01-20 13:36:00,26.8,8.8,30.26,NNW,329,6.0,14.0,46,0.00,,CLR,0.00,VWS V14.01,2013-01-20 19:36:00,
2013-01-20 13:39:00,27.1,9.6,30.26,NW,318,6.0,14.0,47,0.00,,CLR,0.00,VWS V14.01,2013-01-20 19:39:00,
2013-01-20 13:40:00,26.9,9.4,30.26,North,5,6.0,14.0,47,0.00,,CLR,0.00,VWS V14.01,2013-01-20 19:40:00,
2013-01-20 13:41:00,26.9,8.9,30.26,North,349,4.0,14.0,46,0.00,,CLR,0.00,VWS V14.01,2013-01-20 19:41:00,
2013-01-20 13:44:00,27.1,10.5,30.26,NNW,335,1.0,14.0,49,0.00,,CLR,0.00,VWS V14.01,2013-01-20 19:44:00,
2013-01-20 13:45:00,27.2,10.6,30.26,NNE,27,0.0,14.0,49,0.00,,CLR,0.00,VWS V14.01,2013-01-20 19:45:00,
2013-01-20 13:46:00,27.2,10.1,30.26,North,350,7.0,14.0,48,0.00,,CLR,0.00,VWS V14.01,2013-01-20 19:46:00,
2013-01-20 13:50:00,27.2,10.6,30.26,NNW,335,6.0,14.0,49,0.00,,CLR,0.00,VWS V14.01,2013-01-20 19:50:00,
2013-01-20 13:51:00,27.2,10.6,30.26,NNW,342,5.0,14.0,49,0.00,,CLR,0.00,VWS V14.01,2013-01-20 19:51:00,
2013-01-20 13:55:00,27.5,9.9,30.26,NNW,332,1.0,14.0,47,0.00,,CLR,0.00,VWS V14.01,2013-01-20 19:55:00,
2013-01-20 13:56:00,27.7,10.1,30.26,NNW,345,13.0,14.0,47,0.00,,CLR,0.00,VWS V14.01,2013-01-20 19:56:00,
2013-01-20 13:57:00,27.7,10.1,30.26,NNW,338,15.0,15.0,47,0.00,,CLR,0.00,VWS V14.01,2013-01-20 19:57:00,
2013-01-20 14:00:00,27.4,9.8,30.26,NNW,329,1.0,1.0,47,0.00,,CLR,0.00,VWS V14.01,2013-01-20 20:00:00,
2013-01-20 14:01:00,27.4,10.3,30.26,North,355,7.0,13.0,48,0.00,,CLR,0.00,VWS V14.01,2013-01-20 20:01:00,
2013-01-20 14:02:00,27.4,10.3,30.26,North,5,11.0,13.0,48,0.00,,CLR,0.00,VWS V14.01,2013-01-20 20:02:00,
2013-01-20 14:05:00,27.4,10.3,30.26,NE,35,7.0,14.0,48,0.00,,CLR,0.00,VWS V14.01,2013-01-20 20:05:00,
2013-01-20 14:06:00,27.4,10.8,30.26,NW,312,6.0,14.0,49,0.00,,CLR,0.00,VWS V14.01,2013-01-20 20:06:00,
2013-01-20 14:07:00,27.4,10.8,30.26,North,360,4.0,14.0,49,0.00,,CLR,0.00,VWS V14.01,2013-01-20 20:07:00,
2013-01-20 14:10:00,27.4,11.2,30.26,North,10,6.0,14.0,50,0.00,,CLR,0.00,VWS V14.01,2013-01-20 20:10:00,
2013-01-20 14:11:00,27.5,11.3,30.26,NNW,340,10.0,14.0,50,0.00,,CLR,0.00,VWS V14.01,2013-01-20 20:11:00,
2013-01-20 14:12:00,27.5,11.3,30.26,NNW,336,6.0,14.0,50,0.00,,CLR,0.00,VWS V14.01,2013-01-20 20:12:00,
2013-01-20 14:15:00,27.7,11.9,30.27,North,355,3.0,14.0,51,0.00,,CLR,0.00,VWS V14.01,2013-01-20 20:15:00,
2013-01-20 14:16:00,27.7,11.9,30.27,NNE,19,5.0,14.0,51,0.00,,CLR,0.00,VWS V14.01,2013-01-20 20:16:00,
2013-01-20 14:17:00,27.7,11.9,30.27,NNW,336,5.0,14.0,51,0.00,,CLR,0.00,VWS V14.01,2013-01-20 20:17:00,
2013-01-20 14:20:00,27.5,11.8,30.27,North,350,6.0,14.0,51,0.00,,CLR,0.00,VWS V14.01,2013-01-20 20:20:00,
2013-01-20 14:21:00,27.5,11.3,30.27,NNW,338,0.0,14.0,50,0.00,,CLR,0.00,VWS V14.01,2013-01-20 20:21:00,
2013-01-20 14:22:00,27.5,11.3,30.27,NNW,342,5.0,14.0,50,0.00,,CLR,0.00,VWS V14.01,2013-01-20 20:22:00,
2013-01-20 14:25:00,27.7,11.0,30.27,NNE,19,3.0,14.0,49,0.00,,CLR,0.00,VWS V14.01,2013-01-20 20:25:00,
2013-01-20 14:27:00,27.5,9.9,30.27,NW,323,10.0,14.0,47,0.00,,CLR,0.00,VWS V14.01,2013-01-20 20:27:00,
2013-01-20 14:30:00,27.2,10.1,30.28,NE,38,8.0,8.0,48,0.00,,CLR,0.00,VWS V14.01,2013-01-20 20:30:00,
2013-01-20 14:32:00,27.2,10.1,30.28,North,5,9.0,13.0,48,0.00,,CLR,0.00,VWS V14.01,2013-01-20 20:32:00,
2013-01-20 14:35:00,27.2,10.1,30.28,WNW,298,6.0,13.0,48,0.00,,CLR,0.00,VWS V14.01,2013-01-20 20:35:00,
2013-01-20 14:37:00,27.2,10.1,30.28,WNW,288,4.0,15.0,48,0.00,,CLR,0.00,VWS V14.01,2013-01-20 20:37:00,
2013-01-20 14:40:00,27.1,10.5,30.28,WNW,293,9.0,16.0,49,0.00,,CLR,0.00,VWS V14.01,2013-01-20 20:40:00,
2013-01-20 14:42:00,26.9,9.9,30.28,WNW,289,13.0,16.0,48,0.00,,CLR,0.00,VWS V14.01,2013-01-20 20:42:00,
2013-01-20 14:45:00,26.8,10.7,30.28,WNW,295,4.0,16.0,50,0.00,,CLR,0.00,VWS V14.01,2013-01-20 20:45:00,
2013-01-20 14:47:00,26.8,10.7,30.28,NNW,331,3.0,16.0,50,0.00,,CLR,0.00,VWS V14.01,2013-01-20 20:47:00,
2013-01-20 14:50:00,26.8,10.7,30.28,NNW,346,5.0,16.0,50,0.00,,CLR,0.00,VWS V14.01,2013-01-20 20:50:00,
2013-01-20 14:52:00,26.6,10.5,30.28,NW,315,2.0,16.0,50,0.00,,CLR,0.00,VWS V14.01,2013-01-20 20:52:00,
2013-01-20 14:53:00,26.6,10.5,30.28,NW,319,7.0,16.0,50,0.00,,CLR,0.00,VWS V14.01,2013-01-20 20:53:00,
2013-01-20 14:56:00,26.6,10.9,30.28,NE,38,5.0,16.0,51,0.00,,CLR,0.00,VWS V14.01,2013-01-20 20:56:00,
2013-01-20 14:57:00,26.5,10.8,30.28,West,273,5.0,16.0,51,0.00,,CLR,0.00,VWS V14.01,2013-01-20 20:57:00,
2013-01-20 14:58:00,26.5,10.8,30.28,WNW,300,0.0,16.0,51,0.00,,CLR,0.00,VWS V14.01,2013-01-20 20:58:00,
2013-01-20 15:00:00,26.5,10.8,30.28,NNW,342,3.0,16.0,51,0.00,,,0.00,VWS V14.01,2013-01-20 21:00:00,
2013-01-20 15:01:00,26.5,11.3,30.28,NW,324,11.0,11.0,52,0.00,,SCT120,0.00,VWS V14.01,2013-01-20 21:01:00,
2013-01-20 15:02:00,26.5,10.8,30.28,WNW,298,6.0,11.0,51,0.00,,SCT120,0.00,VWS V14.01,2013-01-20 21:02:00,
2013-01-20 15:03:00,26.5,10.8,30.28,NW,308,10.0,12.0,51,0.00,,SCT120,0.00,VWS V14.01,2013-01-20 21:03:00,
2013-01-20 15:06:00,26.3,10.6,30.28,WNW,291,4.0,12.0,51,0.00,,SCT120,0.00,VWS V14.01,2013-01-20 21:06:00,
2013-01-20 15:07:00,26.3,10.6,30.28,NNE,22,3.0,12.0,51,0.00,,SCT120,0.00,VWS V14.01,2013-01-20 21:07:00,
2013-01-20 15:08:00,26.3,10.6,30.28,NNW,328,3.0,12.0,51,0.00,,SCT120,0.00,VWS V14.01,2013-01-20 21:08:00,
2013-01-20 15:12:00,26.2,10.6,30.28,West,277,6.0,13.0,51,0.00,,SCT120,0.00,VWS V14.01,2013-01-20 21:12:00,
2013-01-20 15:13:00,26.2,11.0,30.28,North,349,4.0,13.0,52,0.00,,SCT120,0.00,VWS V14.01,2013-01-20 21:13:00,
2013-01-20 15:17:00,26.0,9.9,30.29,NW,309,10.0,14.0,50,0.00,,SCT120,0.00,VWS V14.01,2013-01-20 21:17:00,
2013-01-20 15:18:00,26.0,9.9,30.29,NW,310,0.0,14.0,50,0.00,,SCT120,0.00,VWS V14.01,2013-01-20 21:18:00,
2013-01-20 15:19:00,26.0,10.4,30.29,WNW,288,4.0,14.0,51,0.00,,SCT120,0.00,VWS V14.01,2013-01-20 21:19:00,
2013-01-20 15:22:00,26.0,10.4,30.29,NNW,327,9.0,14.0,51,0.00,,SCT120,0.00,VWS V14.01,2013-01-20 21:22:00,
2013-01-20 15:23:00,26.0,10.4,30.29,NNW,334,6.0,14.0,51,0.00,,SCT120,0.00,VWS V14.01,2013-01-20 21:23:00,
2013-01-20 15:24:00,26.0,10.4,30.29,NW,306,2.0,14.0,51,0.00,,SCT120,0.00,VWS V14.01,2013-01-20 21:24:00,
2013-01-20 15:28:00,26.0,10.8,30.29,NW,320,5.0,14.0,52,0.00,,SCT120,0.00,VWS V14.01,2013-01-20 21:28:00,
2013-01-20 15:29:00,26.0,10.8,30.29,NW,321,0.0,14.0,52,0.00,,SCT120,0.00,VWS V14.01,2013-01-20 21:29:00,
2013-01-20 15:30:00,26.0,10.8,30.29,NNW,338,1.0,14.0,52,0.00,,,0.00,VWS V14.01,2013-01-20 21:30:00,
2013-01-20 15:33:00,26.0,10.8,30.29,WNW,297,0.0,6.0,52,0.00,,SCT120,0.00,VWS V14.01,2013-01-20 21:33:00,
2013-01-20 15:34:00,26.0,11.2,30.29,NW,307,0.0,6.0,53,0.00,,SCT120,0.00,VWS V14.01,2013-01-20 21:34:00,
2013-01-20 15:38:00,26.0,11.2,30.29,NW,304,0.0,6.0,53,0.00,,SCT120,0.00,VWS V14.01,2013-01-20 21:38:00,
2013-01-20 15:39:00,26.0,11.2,30.29,NW,306,1.0,6.0,53,0.00,,SCT120,0.00,VWS V14.01,2013-01-20 21:39:00,
2013-01-20 15:43:00,26.0,10.8,30.29,NNW,337,2.0,11.0,52,0.00,,SCT120,0.00,VWS V14.01,2013-01-20 21:43:00,
2013-01-20 15:44:00,26.0,10.8,30.28,NNW,327,4.0,11.0,52,0.00,,SCT120,0.00,VWS V14.01,2013-01-20 21:44:00,
2013-01-20 15:48:00,26.0,11.6,30.28,WNW,303,0.0,11.0,54,0.00,,BKN120,0.00,VWS V14.01,2013-01-20 21:48:00,
2013-01-20 15:49:00,26.0,11.6,30.28,WNW,303,0.0,11.0,54,0.00,,BKN120,0.00,VWS V14.01,2013-01-20 21:49:00,
2013-01-20 15:50:00,26.0,11.6,30.28,NW,311,0.0,11.0,54,0.00,,BKN120,0.00,VWS V14.01,2013-01-20 21:50:00,
2013-01-20 15:53:00,26.0,11.6,30.28,NW,313,1.0,11.0,54,0.00,,BKN120,0.00,VWS V14.01,2013-01-20 21:53:00,
2013-01-20 15:54:00,26.0,11.6,30.28,NW,321,0.0,11.0,54,0.00,,BKN120,0.00,VWS V14.01,2013-01-20 21:54:00,
2013-01-20 15:55:00,26.0,11.6,30.28,NNW,333,3.0,11.0,54,0.00,,BKN120,0.00,VWS V14.01,2013-01-20 21:55:00,
2013-01-20 15:58:00,25.9,12.0,30.28,NNW,331,0.0,11.0,55,0.00,,BKN120,0.00,VWS V14.01,2013-01-20 21:58:00,
2013-01-20 15:59:00,25.9,12.0,30.29,NW,317,0.0,11.0,55,0.00,,BKN120,0.00,VWS V14.01,2013-01-20 21:59:00,
2013-01-20 16:00:00,25.9,12.0,30.29,NW,318,0.0,0.0,55,0.00,,BKN120,0.00,VWS V14.01,2013-01-20 22:00:00,
2013-01-20 16:03:00,25.9,12.0,30.29,NNW,348,0.0,5.0,55,0.00,,OVC120,0.00,VWS V14.01,2013-01-20 22:03:00,
2013-01-20 16:04:00,25.9,12.0,30.29,NNW,348,0.0,5.0,55,0.00,,OVC120,0.00,VWS V14.01,2013-01-20 22:04:00,
2013-01-20 16:05:00,25.9,12.0,30.29,NW,305,3.0,5.0,55,0.00,,OVC120,0.00,VWS V14.01,2013-01-20 22:05:00,
2013-01-20 16:08:00,25.9,12.4,30.29,NNW,327,1.0,5.0,56,0.00,,OVC120,0.00,VWS V14.01,2013-01-20 22:08:00,
2013-01-20 16:09:00,25.9,12.4,30.29,NNW,343,0.0,5.0,56,0.00,,OVC120,0.00,VWS V14.01,2013-01-20 22:09:00,
2013-01-20 16:10:00,25.9,12.4,30.29,NNW,329,0.0,6.0,56,0.00,,OVC120,0.00,VWS V14.01,2013-01-20 22:10:00,
2013-01-20 16:14:00,25.9,12.4,30.29,North,10,0.0,6.0,56,0.00,,OVC120,0.00,VWS V14.01,2013-01-20 22:14:00,
2013-01-20 16:15:00,25.9,12.8,30.29,NW,319,1.0,6.0,57,0.00,,OVC120,0.00,VWS V14.01,2013-01-20 22:15:00,
2013-01-20 16:19:00,25.7,11.8,30.29,NNW,332,2.0,11.0,55,0.00,,OVC120,0.00,VWS V14.01,2013-01-20 22:19:00,
2013-01-20 16:20:00,25.6,11.7,30.29,NW,320,0.0,11.0,55,0.00,,OVC120,0.00,VWS V14.01,2013-01-20 22:20:00,
2013-01-20 16:24:00,25.6,11.3,30.29,NW,326,3.0,11.0,54,0.00,,OVC120,0.00,VWS V14.01,2013-01-20 22:24:00,
2013-01-20 16:25:00,25.6,11.3,30.29,NNW,332,6.0,11.0,54,0.00,,OVC120,0.00,VWS V14.01,2013-01-20 22:25:00,
2013-01-20 16:29:00,25.5,11.2,30.29,NW,314,4.0,11.0,54,0.00,,OVC120,0.00,VWS V14.01,2013-01-20 22:29:00,
2013-01-20 16:30:00,25.5,11.2,30.29,NNW,338,5.0,11.0,54,0.00,,OVC120,0.00,VWS V14.01,2013-01-20 22:30:00,
2013-01-20 16:34:00,25.5,10.8,30.29,North,5,2.0,9.0,53,0.00,,OVC120,0.00,VWS V14.01,2013-01-20 22:34:00,
2013-01-20 16:35:00,25.5,10.8,30.29,NW,310,3.0,9.0,53,0.00,,OVC120,0.00,VWS V14.01,2013-01-20 22:35:00,
2013-01-20 16:36:00,25.3,11.0,30.29,NW,311,0.0,9.0,54,0.00,,OVC120,0.00,VWS V14.01,2013-01-20 22:36:00,
2013-01-20 16:39:00,25.5,11.2,30.29,WNW,302,3.0,9.0,54,0.00,,OVC120,0.00,VWS V14.01,2013-01-20 22:39:00,
2013-01-20 16:40:00,25.5,11.2,30.29,NW,306,1.0,9.0,54,0.00,,OVC120,0.00,VWS V14.01,2013-01-20 22:40:00,
2013-01-20 16:42:00,25.5,11.2,30.29,NW,312,3.0,9.0,54,0.00,,OVC120,0.00,VWS V14.01,2013-01-20 22:42:00,
2013-01-20 16:44:00,25.5,11.2,30.28,North,5,2.0,9.0,54,0.00,,OVC120,0.00,VWS V14.01,2013-01-20 22:44:00,
2013-01-20 16:45:00,25.5,11.2,30.28,NNE,14,0.0,9.0,54,0.00,,OVC120,0.00,VWS V14.01,2013-01-20 22:45:00,
2013-01-20 16:47:00,25.5,11.6,30.28,NW,326,3.0,9.0,55,0.00,,CLR,0.00,VWS V14.01,2013-01-20 22:47:00,
2013-01-20 16:49:00,25.5,11.6,30.28,NW,311,0.0,9.0,55,0.00,,CLR,0.00,VWS V14.01,2013-01-20 22:49:00,
2013-01-20 16:50:00,25.3,11.4,30.28,NW,311,0.0,9.0,55,0.00,,CLR,0.00,VWS V14.01,2013-01-20 22:50:00,
2013-01-20 16:52:00,25.3,11.4,30.28,NNW,339,2.0,9.0,55,0.00,,CLR,0.00,VWS V14.01,2013-01-20 22:52:00,
2013-01-20 16:54:00,25.3,11.4,30.28,NNW,340,0.0,9.0,55,0.00,,CLR,0.00,VWS V14.01,2013-01-20 22:54:00,
2013-01-20 16:55:00,25.3,11.4,30.28,NW,310,0.0,9.0,55,0.00,,CLR,0.00,VWS V14.01,2013-01-20 22:55:00,
2013-01-20 16:57:00,25.3,11.4,30.28,NW,314,1.0,9.0,55,0.00,,CLR,0.00,VWS V14.01,2013-01-20 22:57:00,
2013-01-20 16:59:00,25.3,11.4,30.28,NW,310,0.0,9.0,55,0.00,,CLR,0.00,VWS V14.01,2013-01-20 22:59:00,
2013-01-20 17:00:00,25.3,11.8,30.28,NW,310,0.0,0.0,56,0.00,,CLR,0.00,VWS V14.01,2013-01-20 23:00:00,
2013-01-20 17:02:00,25.3,11.8,30.28,NW,318,0.0,4.0,56,0.00,,CLR,0.00,VWS V14.01,2013-01-20 23:02:00,
2013-01-20 17:04:00,25.3,11.8,30.28,NNW,336,0.0,4.0,56,0.00,,CLR,0.00,VWS V14.01,2013-01-20 23:04:00,
2013-01-20 17:05:00,25.3,11.8,30.28,NNW,339,0.0,4.0,56,0.00,,CLR,0.00,VWS V14.01,2013-01-20 23:05:00,
2013-01-20 17:06:00,25.3,11.8,30.28,NNW,343,0.0,4.0,56,0.00,,CLR,0.00,VWS V14.01,2013-01-20 23:06:00,
2013-01-20 17:08:00,25.3,11.4,30.28,North,360,2.0,4.0,55,0.00,,CLR,0.00,VWS V14.01,2013-01-20 23:08:00,
2013-01-20 17:09:00,25.2,11.3,30.28,NW,314,2.0,7.0,55,0.00,,CLR,0.00,VWS V14.01,2013-01-20 23:09:00,
2013-01-20 17:10:00,25.2,11.3,30.28,NW,304,0.0,7.0,55,0.00,,CLR,0.00,VWS V14.01,2013-01-20 23:10:00,
2013-01-20 17:11:00,25.2,11.7,30.28,NNW,344,0.0,7.0,56,0.00,,CLR,0.00,VWS V14.01,2013-01-20 23:11:00,
2013-01-20 17:13:00,25.2,11.7,30.28,NNW,340,0.0,7.0,56,0.00,,CLR,0.00,VWS V14.01,2013-01-20 23:13:00,
2013-01-20 17:15:00,25.2,11.7,30.28,NW,317,0.0,7.0,56,0.00,,CLR,0.00,VWS V14.01,2013-01-20 23:15:00,
2013-01-20 17:16:00,25.2,11.7,30.28,NW,311,2.0,7.0,56,0.00,,CLR,0.00,VWS V14.01,2013-01-20 23:16:00,
2013-01-20 17:18:00,25.2,11.3,30.28,NNW,340,4.0,10.0,55,0.00,,CLR,0.00,VWS V14.01,2013-01-20 23:18:00,
2013-01-20 17:20:00,25.2,11.3,30.28,North,5,0.0,10.0,55,0.00,,CLR,0.00,VWS V14.01,2013-01-20 23:20:00,
2013-01-20 17:21:00,25.2,11.3,30.28,WNW,295,2.0,10.0,55,0.00,,CLR,0.00,VWS V14.01,2013-01-20 23:21:00,
2013-01-20 17:23:00,25.2,10.9,30.28,NW,311,0.0,10.0,54,0.00,,CLR,0.00,VWS V14.01,2013-01-20 23:23:00,
2013-01-20 17:25:00,25.2,10.9,30.28,NNW,344,0.0,10.0,54,0.00,,CLR,0.00,VWS V14.01,2013-01-20 23:25:00,
2013-01-20 17:26:00,25.2,10.9,30.28,NW,308,0.0,10.0,54,0.00,,CLR,0.00,VWS V14.01,2013-01-20 23:26:00,
2013-01-20 17:29:00,25.2,10.9,30.28,NNW,330,0.0,10.0,54,0.00,,CLR,0.00,VWS V14.01,2013-01-20 23:29:00,
2013-01-20 17:30:00,25.2,10.9,30.28,NNW,333,1.0,4.0,54,0.00,,CLR,0.00,VWS V14.01,2013-01-20 23:30:00,
2013-01-20 17:31:00,25.2,10.9,30.28,NNE,15,0.0,4.0,54,0.00,,CLR,0.00,VWS V14.01,2013-01-20 23:31:00,
2013-01-20 17:32:00,25.2,10.9,30.28,NNW,336,0.0,4.0,54,0.00,,CLR,0.00,VWS V14.01,2013-01-20 23:32:00,
2013-01-20 17:34:00,25.0,10.7,30.28,NNW,333,2.0,4.0,54,0.00,,CLR,0.00,VWS V14.01,2013-01-20 23:34:00,
2013-01-20 17:35:00,25.0,10.7,30.28,NNW,336,4.0,5.0,54,0.00,,CLR,0.00,VWS V14.01,2013-01-20 23:35:00,
2013-01-20 17:36:00,25.0,10.7,30.28,NW,311,0.0,5.0,54,0.00,,CLR,0.00,VWS V14.01,2013-01-20 23:36:00,
2013-01-20 17:38:00,25.0,10.7,30.28,NNW,333,0.0,5.0,54,0.00,,CLR,0.00,VWS V14.01,2013-01-20 23:38:00,
2013-01-20 17:39:00,25.0,10.3,30.28,NW,311,2.0,6.0,53,0.00,,CLR,0.00,VWS V14.01,2013-01-20 23:39:00,
2013-01-20 17:40:00,25.0,10.7,30.28,NW,312,0.0,6.0,54,0.00,,CLR,0.00,VWS V14.01,2013-01-20 23:40:00,
2013-01-20 17:41:00,25.0,10.7,30.28,NW,321,1.0,6.0,54,0.00,,CLR,0.00,VWS V14.01,2013-01-20 23:41:00,
2013-01-20 17:43:00,25.0,10.7,30.28,NW,316,0.0,6.0,54,0.00,,CLR,0.00,VWS V14.01,2013-01-20 23:43:00,
2013-01-20 17:44:00,25.0,10.3,30.29,NW,326,0.0,6.0,53,0.00,,CLR,0.00,VWS V14.01,2013-01-20 23:44:00,
2013-01-20 17:45:00,25.0,10.3,30.29,NW,324,0.0,6.0,53,0.00,,CLR,0.00,VWS V14.01,2013-01-20 23:45:00,
2013-01-20 17:46:00,25.0,10.3,30.29,NNW,337,2.0,6.0,53,0.00,,BKN090,0.00,VWS V14.01,2013-01-20 23:46:00,
2013-01-20 17:48:00,24.9,10.2,30.29,NW,313,0.0,6.0,53,0.00,,BKN090,0.00,VWS V14.01,2013-01-20 23:48:00,
2013-01-20 17:50:00,24.9,10.2,30.29,NW,316,0.0,6.0,53,0.00,,BKN090,0.00,VWS V14.01,2013-01-20 23:50:00,
2013-01-20 17:51:00,24.9,10.2,30.29,NW,323,0.0,6.0,53,0.00,,BKN090,0.00,VWS V14.01,2013-01-20 23:51:00,
2013-01-20 17:53:00,24.9,10.6,30.29,NNW,334,0.0,6.0,54,0.00,,BKN090,0.00,VWS V14.01,2013-01-20 23:53:00,
2013-01-20 17:55:00,24.9,10.6,30.29,NNW,334,0.0,6.0,54,0.00,,BKN090,0.00,VWS V14.01,2013-01-20 23:55:00,
2013-01-20 17:56:00,24.9,10.6,30.29,NW,326,5.0,6.0,54,0.00,,BKN090,0.00,VWS V14.01,2013-01-20 23:56:00,
2013-01-20 17:58:00,24.9,10.6,30.29,NNW,340,5.0,7.0,54,0.00,,BKN090,0.00,VWS V14.01,2013-01-20 23:58:00,
2013-01-20 18:00:00,24.7,10.4,30.28,NNW,348,5.0,7.0,54,0.00,,BKN090,0.00,VWS V14.01,2013-01-21 00:00:00,
2013-01-20 18:01:00,24.7,10.4,30.28,NW,315,2.0,7.0,54,0.00,,BKN070,0.00,VWS V14.01,2013-01-21 00:01:00,
2013-01-20 18:02:00,24.7,10.4,30.28,NW,323,0.0,7.0,54,0.00,,BKN070,0.00,VWS V14.01,2013-01-21 00:02:00,
2013-01-20 18:03:00,24.7,10.4,30.28,NW,323,0.0,7.0,54,0.00,,BKN070,0.00,VWS V14.01,2013-01-21 00:03:00,
2013-01-20 18:05:00,24.7,10.4,30.28,NNW,327,2.0,7.0,54,0.00,,BKN070,0.00,VWS V14.01,2013-01-21 00:05:00,
2013-01-20 18:06:00,24.7,10.4,30.28,NNW,338,0.0,7.0,54,0.00,,BKN070,0.00,VWS V14.01,2013-01-21 00:06:00,
2013-01-20 18:07:00,24.7,10.4,30.28,NNW,330,0.0,7.0,54,0.00,,BKN070,0.00,VWS V14.01,2013-01-21 00:07:00,
2013-01-20 18:08:00,24.7,10.9,30.28,NW,321,0.0,7.0,55,0.00,,BKN070,0.00,VWS V14.01,2013-01-21 00:08:00,
2013-01-20 18:10:00,24.7,10.9,30.28,NNW,346,0.0,7.0,55,0.00,,BKN070,0.00,VWS V14.01,2013-01-21 00:10:00,
2013-01-20 18:11:00,24.6,10.8,30.28,NW,320,2.0,7.0,55,0.00,,BKN070,0.00,VWS V14.01,2013-01-21 00:11:00,
2013-01-20 18:12:00,24.6,10.8,30.28,NNW,330,0.0,7.0,55,0.00,,BKN070,0.00,VWS V14.01,2013-01-21 00:12:00,
2013-01-20 18:14:00,24.6,10.8,30.28,NNW,329,0.0,7.0,55,0.00,,BKN070,0.00,VWS V14.01,2013-01-21 00:14:00,
2013-01-20 18:15:00,24.6,11.2,30.28,NW,325,0.0,7.0,56,0.00,,BKN070,0.00,VWS V14.01,2013-01-21 00:15:00,
2013-01-20 18:16:00,24.6,11.2,30.28,NW,325,2.0,7.0,56,0.00,,BKN070,0.00,VWS V14.01,2013-01-21 00:16:00,
2013-01-20 18:17:00,24.6,11.2,30.28,NNW,333,4.0,7.0,56,0.00,,BKN070,0.00,VWS V14.01,2013-01-21 00:17:00,
2013-01-20 18:19:00,24.6,11.2,30.28,NNW,338,0.0,7.0,56,0.00,,BKN070,0.00,VWS V14.01,2013-01-21 00:19:00,
2013-01-20 18:20:00,24.6,11.2,30.28,NNW,342,0.0,7.0,56,0.00,,BKN070,0.00,VWS V14.01,2013-01-21 00:20:00,
2013-01-20 18:21:00,24.6,11.2,30.28,NNW,333,3.0,7.0,56,0.00,,BKN070,0.00,VWS V14.01,2013-01-21 00:21:00,
2013-01-20 18:22:00,24.6,11.2,30.28,NW,323,0.0,7.0,56,0.00,,BKN070,0.00,VWS V14.01,2013-01-21 00:22:00,
2013-01-20 18:24:00,24.6,11.2,30.28,NNW,327,0.0,7.0,56,0.00,,BKN070,0.00,VWS V14.01,2013-01-21 00:24:00,
2013-01-20 18:26:00,24.6,11.2,30.28,NW,313,0.0,7.0,56,0.00,,BKN070,0.00,VWS V14.01,2013-01-21 00:26:00,
2013-01-20 18:27:00,24.4,11.4,30.28,NW,313,0.0,7.0,57,0.00,,BKN070,0.00,VWS V14.01,2013-01-21 00:27:00,
2013-01-20 18:28:00,24.4,11.4,30.28,NW,311,0.0,7.0,57,0.00,,BKN070,0.00,VWS V14.01,2013-01-21 00:28:00,
2013-01-20 18:29:00,24.4,11.4,30.28,NW,311,0.0,7.0,57,0.00,,BKN070,0.00,VWS V14.01,2013-01-21 00:29:00,
2013-01-20 18:30:00,24.4,11.4,30.28,NW,311,0.0,7.0,57,0.00,,,0.00,VWS V14.01,2013-01-21 00:30:00,
2013-01-20 18:31:00,24.4,11.4,30.28,NW,311,0.0,0.0,57,0.00,,SCT080,0.00,VWS V14.01,2013-01-21 00:31:00,
2013-01-20 18:32:00,24.4,11.4,30.28,NW,312,0.0,0.0,57,0.00,,SCT080,0.00,VWS V14.01,2013-01-21 00:32:00,
2013-01-20 18:33:00,24.4,11.4,30.28,NW,312,0.0,0.0,57,0.00,,SCT080,0.00,VWS V14.01,2013-01-21 00:33:00,
2013-01-20 18:34:00,24.4,11.4,30.28,NW,321,1.0,2.0,57,0.00,,SCT080,0.00,VWS V14.01,2013-01-21 00:34:00,
2013-01-20 18:37:00,24.4,11.4,30.28,NNW,328,0.0,6.0,57,0.00,,SCT080,0.00,VWS V14.01,2013-01-21 00:37:00,
2013-01-20 18:39:00,24.3,11.7,30.28,NW,315,2.0,6.0,58,0.00,,SCT080,0.00,VWS V14.01,2013-01-21 00:39:00,
2013-01-20 18:42:00,24.3,11.7,30.28,NW,323,2.0,6.0,58,0.00,,SCT080,0.00,VWS V14.01,2013-01-21 00:42:00,
2013-01-20 18:44:00,24.3,11.7,30.28,NW,323,0.0,6.0,58,0.00,,SCT080,0.00,VWS V14.01,2013-01-21 00:44:00,
2013-01-20 18:45:00,24.3,11.7,30.28,NW,320,0.0,6.0,58,0.00,,SCT080,0.00,VWS V14.01,2013-01-21 00:45:00,
2013-01-20 18:48:00,24.3,11.7,30.28,NNW,328,0.0,6.0,58,0.00,,SCT075,0.00,VWS V14.01,2013-01-21 00:48:00,
2013-01-20 18:49:00,24.1,11.5,30.28,NNW,329,0.0,6.0,58,0.00,,SCT075,0.00,VWS V14.01,2013-01-21 00:49:00,
2013-01-20 18:50:00,24.1,11.5,30.28,NNW,329,0.0,6.0,58,0.00,,SCT075,0.00,VWS V14.01,2013-01-21 00:50:00,
2013-01-20 18:53:00,24.1,11.9,30.28,WNW,303,0.0,6.0,59,0.00,,SCT075,0.00,VWS V14.01,2013-01-21 00:53:00,
2013-01-20 18:54:00,24.1,11.9,30.28,NW,306,0.0,6.0,59,0.00,,SCT075,0.00,VWS V14.01,2013-01-21 00:54:00,
2013-01-20 18:55:00,24.1,11.9,30.28,NW,306,0.0,6.0,59,0.00,,SCT075,0.00,VWS V14.01,2013-01-21 00:55:00,
2013-01-20 18:58:00,24.1,11.9,30.28,NW,309,0.0,6.0,59,0.00,,SCT075,0.00,VWS V14.01,2013-01-21 00:58:00,
2013-01-20 18:59:00,24.1,11.9,30.28,NW,309,0.0,6.0,59,0.00,,SCT075,0.00,VWS V14.01,2013-01-21 00:59:00,
2013-01-20 19:00:00,24.1,11.9,30.28,NW,309,0.0,1.0,59,0.00,,SCT075,0.00,VWS V14.01,2013-01-21 01:00:00,
2013-01-20 19:03:00,24.1,11.9,30.28,NW,315,0.0,4.0,59,0.00,,SCT075,0.00,VWS V14.01,2013-01-21 01:03:00,
2013-01-20 19:04:00,24.1,11.9,30.28,NW,315,0.0,4.0,59,0.00,,SCT075,0.00,VWS V14.01,2013-01-21 01:04:00,
2013-01-20 19:05:00,24.1,11.9,30.28,NW,315,3.0,4.0,59,0.00,,SCT075,0.00,VWS V14.01,2013-01-21 01:05:00,
2013-01-20 19:08:00,24.1,12.2,30.28,NW,319,9.0,11.0,60,0.00,,SCT075,0.00,VWS V14.01,2013-01-21 01:08:00,
2013-01-20 19:09:00,24.1,12.2,30.28,NW,321,3.0,11.0,60,0.00,,SCT075,0.00,VWS V14.01,2013-01-21 01:09:00,
2013-01-20 19:10:00,24.1,12.2,30.28,NNW,336,2.0,11.0,60,0.00,,SCT075,0.00,VWS V14.01,2013-01-21 01:10:00,
2013-01-20 19:14:00,24.1,11.9,30.28,NNW,332,0.0,11.0,59,0.00,,SCT075,0.00,VWS V14.01,2013-01-21 01:14:00,
2013-01-20 19:15:00,24.1,12.2,30.28,NNW,333,0.0,11.0,60,0.00,,SCT075,0.00,VWS V14.01,2013-01-21 01:15:00,
2013-01-20 19:19:00,24.1,11.9,30.28,NNW,331,1.0,11.0,59,0.00,,SCT075,0.00,VWS V14.01,2013-01-21 01:19:00,
2013-01-20 19:20:00,24.1,11.9,30.28,NNW,330,0.0,11.0,59,0.00,,SCT075,0.00,VWS V14.01,2013-01-21 01:20:00,
2013-01-20 19:24:00,24.1,11.5,30.28,NNW,327,4.0,13.0,58,0.00,,SCT075,0.00,VWS V14.01,2013-01-21 01:24:00,
2013-01-20 19:25:00,24.1,11.5,30.28,NNW,346,4.0,13.0,58,0.00,,SCT075,0.00,VWS V14.01,2013-01-21 01:25:00,
2013-01-20 19:26:00,24.1,11.5,30.28,NNW,336,4.0,13.0,58,0.00,,SCT075,0.00,VWS V14.01,2013-01-21 01:26:00,
2013-01-20 19:29:00,24.1,11.5,30.27,NNW,345,0.0,13.0,58,0.00,,SCT075,0.00,VWS V14.01,2013-01-21 01:29:00,
2013-01-20 19:30:00,24.0,11.4,30.27,North,5,9.0,13.0,58,0.00,,SCT075,0.00,VWS V14.01,2013-01-21 01:30:00,
2013-01-20 19:31:00,24.0,11.4,30.27,NNW,337,10.0,13.0,58,0.00,,SCT075,0.00,VWS V14.01,2013-01-21 01:31:00,
2013-01-20 19:34:00,24.0,11.4,30.27,NW,312,2.0,13.0,58,0.00,,SCT075,0.00,VWS V14.01,2013-01-21 01:34:00,
2013-01-20 19:35:00,24.0,11.4,30.27,NW,311,5.0,13.0,58,0.00,,SCT075,0.00,VWS V14.01,2013-01-21 01:35:00,
2013-01-20 19:37:00,24.0,11.4,30.27,NNW,338,1.0,13.0,58,0.00,,SCT075,0.00,VWS V14.01,2013-01-21 01:37:00,
2013-01-20 19:39:00,24.0,11.4,30.27,NNW,346,0.0,13.0,58,0.00,,SCT075,0.00,VWS V14.01,2013-01-21 01:39:00,
2013-01-20 19:40:00,24.0,11.4,30.27,NNW,333,0.0,13.0,58,0.00,,SCT075,0.00,VWS V14.01,2013-01-21 01:40:00,
2013-01-20 19:43:00,24.0,11.4,30.27,NNW,336,0.0,13.0,58,0.00,,SCT075,0.00,VWS V14.01,2013-01-21 01:43:00,
2013-01-20 19:44:00,24.0,11.4,30.27,NNW,340,0.0,13.0,58,0.00,,SCT075,0.00,VWS V14.01,2013-01-21 01:44:00,
2013-01-20 19:45:00,24.0,11.4,30.27,NNW,335,3.0,13.0,58,0.00,,SCT075,0.00,VWS V14.01,2013-01-21 01:45:00,
2013-01-20 19:48:00,23.8,10.8,30.27,NW,312,0.0,13.0,57,0.00,,OVC090,0.00,VWS V14.01,2013-01-21 01:48:00,
2013-01-20 19:49:00,23.8,10.8,30.27,NW,325,2.0,13.0,57,0.00,,OVC090,0.00,VWS V14.01,2013-01-21 01:49:00,
2013-01-20 19:50:00,23.8,10.8,30.27,NNW,333,7.0,13.0,57,0.00,,OVC090,0.00,VWS V14.01,2013-01-21 01:50:00,
2013-01-20 19:51:00,23.8,10.8,30.27,NNW,336,6.0,13.0,57,0.00,,OVC090,0.00,VWS V14.01,2013-01-21 01:51:00,
2013-01-20 19:53:00,23.8,10.8,30.27,NNW,336,9.0,13.0,57,0.00,,OVC090,0.00,VWS V14.01,2013-01-21 01:53:00,
2013-01-20 19:54:00,23.8,10.4,30.27,North,351,0.0,13.0,56,0.00,,OVC090,0.00,VWS V14.01,2013-01-21 01:54:00,
2013-01-20 19:55:00,23.8,10.8,30.27,NNW,340,0.0,13.0,57,0.00,,OVC090,0.00,VWS V14.01,2013-01-21 01:55:00,
2013-01-20 19:56:00,23.8,10.8,30.27,NNW,340,0.0,13.0,57,0.00,,OVC090,0.00,VWS V14.01,2013-01-21 01:56:00,
2013-01-20 19:58:00,23.7,10.7,30.27,North,360,8.0,13.0,57,0.00,,OVC090,0.00,VWS V14.01,2013-01-21 01:58:00,
2013-01-20 19:59:00,23.7,10.7,30.28,NW,304,9.0,13.0,57,0.00,,OVC090,0.00,VWS V14.01,2013-01-21 01:59:00,
2013-01-20 20:00:00,23.7,10.7,30.28,NNW,343,4.0,4.0,57,0.00,,OVC090,0.00,VWS V14.01,2013-01-21 02:00:00,
2013-01-20 20:01:00,23.7,10.7,30.28,NW,314,2.0,4.0,57,0.00,,OVC100,0.00,VWS V14.01,2013-01-21 02:01:00,
2013-01-20 20:03:00,23.7,10.7,30.28,NNW,327,2.0,11.0,57,0.00,,OVC100,0.00,VWS V14.01,2013-01-21 02:03:00,
2013-01-20 20:04:00,23.7,10.7,30.28,NNW,333,0.0,11.0,57,0.00,,OVC100,0.00,VWS V14.01,2013-01-21 02:04:00,
2013-01-20 20:05:00,23.7,10.7,30.28,NW,321,0.0,11.0,57,0.00,,OVC100,0.00,VWS V14.01,2013-01-21 02:05:00,
2013-01-20 20:06:00,23.7,10.7,30.28,NNW,333,0.0,11.0,57,0.00,,OVC100,0.00,VWS V14.01,2013-01-21 02:06:00,
2013-01-20 20:08:00,23.7,10.7,30.28,NW,312,2.0,11.0,57,0.00,,OVC100,0.00,VWS V14.01,2013-01-21 02:08:00,
2013-01-20 20:09:00,23.7,10.7,30.28,WNW,296,1.0,11.0,57,0.00,,OVC100,0.00,VWS V14.01,2013-01-21 02:09:00,
2013-01-20 20:10:00,23.7,10.7,30.28,NNW,346,0.0,11.0,57,0.00,,OVC100,0.00,VWS V14.01,2013-01-21 02:10:00,
2013-01-20 20:11:00,23.7,10.7,30.28,NW,311,1.0,11.0,57,0.00,,OVC100,0.00,VWS V14.01,2013-01-21 02:11:00,
2013-01-20 20:13:00,23.7,10.7,30.28,NNW,329,5.0,12.0,57,0.00,,OVC100,0.00,VWS V14.01,2013-01-21 02:13:00,
2013-01-20 20:14:00,23.7,10.7,30.27,NNW,342,2.0,12.0,57,0.00,,OVC100,0.00,VWS V14.01,2013-01-21 02:14:00,
2013-01-20 20:15:00,23.7,11.1,30.27,NW,325,14.0,14.0,58,0.00,,OVC100,0.00,VWS V14.01,2013-01-21 02:15:00,
2013-01-20 20:16:00,23.5,10.5,30.27,North,355,4.0,14.0,57,0.00,,OVC100,0.00,VWS V14.01,2013-01-21 02:16:00,
2013-01-20 20:18:00,23.5,10.9,30.27,NW,321,6.0,14.0,58,0.00,,OVC100,0.00,VWS V14.01,2013-01-21 02:18:00,
2013-01-20 20:20:00,23.5,10.9,30.27,North,349,1.0,14.0,58,0.00,,OVC100,0.00,VWS V14.01,2013-01-21 02:20:00,
2013-01-20 20:22:00,23.5,10.9,30.27,NW,312,3.0,14.0,58,0.00,,OVC100,0.00,VWS V14.01,2013-01-21 02:22:00,
2013-01-20 20:24:00,23.5,10.9,30.27,North,9,5.0,14.0,58,0.00,,OVC100,0.00,VWS V14.01,2013-01-21 02:24:00,
2013-01-20 20:25:00,23.5,10.9,30.27,NW,321,4.0,14.0,58,0.00,,OVC100,0.00,VWS V14.01,2013-01-21 02:25:00,
2013-01-20 20:26:00,23.4,10.8,30.27,WNW,299,5.0,14.0,58,0.00,,OVC100,0.00,VWS V14.01,2013-01-21 02:26:00,
2013-01-20 20:28:00,23.4,10.8,30.27,NNW,347,5.0,14.0,58,0.00,,OVC100,0.00,VWS V14.01,2013-01-21 02:28:00,
2013-01-20 20:29:00,23.4,10.8,30.28,North,349,2.0,14.0,58,0.00,,OVC100,0.00,VWS V14.01,2013-01-21 02:29:00,
2013-01-20 20:30:00,23.4,10.8,30.28,NW,309,0.0,1.0,58,0.00,,OVC100,0.00,VWS V14.01,2013-01-21 02:30:00,
2013-01-20 20:31:00,23.4,10.8,30.28,NW,315,0.0,3.0,58,0.00,,OVC100,0.00,VWS V14.01,2013-01-21 02:31:00,
2013-01-20 20:33:00,23.4,10.8,30.28,WNW,298,4.0,11.0,58,0.00,,OVC100,0.00,VWS V14.01,2013-01-21 02:33:00,
2013-01-20 20:34:00,23.4,10.8,30.28,NNW,327,3.0,11.0,58,0.00,,OVC100,0.00,VWS V14.01,2013-01-21 02:34:00,
2013-01-20 20:35:00,23.2,10.6,30.28,NNW,347,1.0,11.0,58,0.00,,OVC100,0.00,VWS V14.01,2013-01-21 02:35:00,
2013-01-20 20:36:00,23.2,10.6,30.28,NW,313,5.0,11.0,58,0.00,,OVC100,0.00,VWS V14.01,2013-01-21 02:36:00,
2013-01-20 20:38:00,23.2,10.6,30.28,NNW,332,3.0,12.0,58,0.00,,OVC100,0.00,VWS V14.01,2013-01-21 02:38:00,
2013-01-20 20:40:00,23.1,10.9,30.28,NNE,33,1.0,12.0,59,0.00,,OVC100,0.00,VWS V14.01,2013-01-21 02:40:00,
2013-01-20 20:41:00,23.1,10.9,30.28,NW,325,3.0,12.0,59,0.00,,OVC100,0.00,VWS V14.01,2013-01-21 02:41:00,
2013-01-20 20:43:00,23.1,10.9,30.28,NNW,347,4.0,12.0,59,0.00,,OVC100,0.00,VWS V14.01,2013-01-21 02:43:00,
2013-01-20 20:45:00,23.1,10.9,30.28,North,5,6.0,12.0,59,0.00,,OVC100,0.00,VWS V14.01,2013-01-21 02:45:00,
2013-01-20 20:47:00,23.1,11.3,30.28,NW,319,0.0,12.0,60,0.00,,OVC075,0.00,VWS V14.01,2013-01-21 02:47:00,
2013-01-20 20:48:00,23.1,11.3,30.28,NW,319,0.0,12.0,60,0.00,,OVC075,0.00,VWS V14.01,2013-01-21 02:48:00,
2013-01-20 20:50:00,23.1,11.3,30.28,NW,310,3.0,12.0,60,0.00,,OVC075,0.00,VWS V14.01,2013-01-21 02:50:00,
2013-01-20 20:52:00,23.1,11.3,30.28,NW,322,10.0,12.0,60,0.00,,OVC075,0.00,VWS V14.01,2013-01-21 02:52:00,
2013-01-20 20:53:00,23.1,11.3,30.28,WNW,302,3.0,12.0,60,0.00,,OVC075,0.00,VWS V14.01,2013-01-21 02:53:00,
2013-01-20 20:55:00,22.9,11.1,30.28,NW,318,0.0,12.0,60,0.00,,OVC075,0.00,VWS V14.01,2013-01-21 02:55:00,
2013-01-20 20:57:00,22.9,11.1,30.28,North,5,1.0,12.0,60,0.00,,OVC075,0.00,VWS V14.01,2013-01-21 02:57:00,
2013-01-20 20:58:00,22.9,11.1,30.28,NW,308,5.0,12.0,60,0.00,,OVC075,0.00,VWS V14.01,2013-01-21 02:58:00,
2013-01-20 21:00:00,22.9,11.1,30.28,NW,316,2.0,12.0,60,0.00,,OVC075,0.00,VWS V14.01,2013-01-21 03:00:00,
2013-01-20 21:01:00,22.9,11.1,30.28,NW,314,0.0,12.0,60,0.00,,OVC075,0.00,VWS V14.01,2013-01-21 03:01:00,
2013-01-20 21:03:00,22.9,11.1,30.28,NW,311,3.0,12.0,60,0.00,,OVC075,0.00,VWS V14.01,2013-01-21 03:03:00,
2013-01-20 21:05:00,22.9,11.1,30.28,NNW,330,4.0,12.0,60,0.00,,OVC075,0.00,VWS V14.01,2013-01-21 03:05:00,
2013-01-20 21:06:00,22.9,11.1,30.28,NW,322,4.0,12.0,60,0.00,,OVC075,0.00,VWS V14.01,2013-01-21 03:06:00,
2013-01-20 21:08:00,22.9,11.1,30.28,NW,310,1.0,12.0,60,0.00,,OVC075,0.00,VWS V14.01,2013-01-21 03:08:00,
2013-01-20 21:10:00,22.9,11.1,30.28,North,351,3.0,12.0,60,0.00,,OVC075,0.00,VWS V14.01,2013-01-21 03:10:00,
2013-01-20 21:11:00,22.9,11.1,30.28,NNW,338,3.0,12.0,60,0.00,,OVC075,0.00,VWS V14.01,2013-01-21 03:11:00,
2013-01-20 21:13:00,22.8,11.0,30.28,NNW,329,6.0,12.0,60,0.00,,OVC075,0.00,VWS V14.01,2013-01-21 03:13:00,
2013-01-20 21:14:00,22.8,11.0,30.28,NNW,331,3.0,12.0,60,0.00,,OVC075,0.00,VWS V14.01,2013-01-21 03:14:00,
2013-01-20 21:15:00,22.8,11.0,30.28,NW,304,5.0,12.0,60,0.00,,OVC075,0.00,VWS V14.01,2013-01-21 03:15:00,
2013-01-20 21:16:00,22.8,11.0,30.28,NW,316,6.0,12.0,60,0.00,,OVC075,0.00,VWS V14.01,2013-01-21 03:16:00,
2013-01-20 21:18:00,22.8,11.0,30.28,NW,312,1.0,12.0,60,0.00,,OVC075,0.00,VWS V14.01,2013-01-21 03:18:00,
2013-01-20 21:19:00,22.8,11.4,30.28,North,350,4.0,12.0,61,0.00,,OVC075,0.00,VWS V14.01,2013-01-21 03:19:00,
2013-01-20 21:20:00,22.8,11.4,30.28,NNW,344,0.0,12.0,61,0.00,,OVC075,0.00,VWS V14.01,2013-01-21 03:20:00,
2013-01-20 21:22:00,22.8,11.4,30.28,NW,313,3.0,12.0,61,0.00,,OVC075,0.00,VWS V14.01,2013-01-21 03:22:00,
2013-01-20 21:23:00,22.8,11.4,30.28,WNW,302,4.0,12.0,61,0.00,,OVC075,0.00,VWS V14.01,2013-01-21 03:23:00,
2013-01-20 21:24:00,22.8,11.4,30.28,WNW,300,1.0,12.0,61,0.00,,OVC075,0.00,VWS V14.01,2013-01-21 03:24:00,
2013-01-20 21:25:00,22.8,11.4,30.28,WNW,301,0.0,12.0,61,0.00,,OVC075,0.00,VWS V14.01,2013-01-21 03:25:00,
2013-01-20 21:27:00,22.8,11.8,30.28,WNW,303,0.0,12.0,62,0.00,,OVC075,0.00,VWS V14.01,2013-01-21 03:27:00,
2013-01-20 21:28:00,22.8,11.8,30.28,NW,304,0.0,12.0,62,0.00,,OVC075,0.00,VWS V14.01,2013-01-21 03:28:00,
2013-01-20 21:29:00,22.8,11.8,30.28,NW,304,0.0,12.0,62,0.00,,OVC075,0.00,VWS V14.01,2013-01-21 03:29:00,
2013-01-20 21:30:00,22.8,11.8,30.28,WNW,300,0.0,4.0,62,0.00,,OVC065,0.00,VWS V14.01,2013-01-21 03:30:00,
2013-01-20 21:32:00,22.9,11.8,30.28,NW,322,1.0,4.0,62,0.00,,OVC065,0.00,VWS V14.01,2013-01-21 03:32:00,
2013-01-20 21:33:00,22.9,11.8,30.28,NW,325,0.0,4.0,62,0.00,,OVC065,0.00,VWS V14.01,2013-01-21 03:33:00,
2013-01-20 21:34:00,22.9,11.8,30.28,NW,325,0.0,4.0,62,0.00,,OVC065,0.00,VWS V14.01,2013-01-21 03:34:00,
2013-01-20 21:35:00,22.8,11.8,30.28,NW,326,0.0,4.0,62,0.00,,OVC065,0.00,VWS V14.01,2013-01-21 03:35:00,
2013-01-20 21:37:00,22.8,11.8,30.28,NNW,331,0.0,5.0,62,0.00,,OVC065,0.00,VWS V14.01,2013-01-21 03:37:00,
2013-01-20 21:38:00,22.8,11.8,30.28,NW,318,0.0,5.0,62,0.00,,OVC065,0.00,VWS V14.01,2013-01-21 03:38:00,
2013-01-20 21:39:00,22.8,12.1,30.28,NW,318,0.0,5.0,63,0.00,,OVC065,0.00,VWS V14.01,2013-01-21 03:39:00,
2013-01-20 21:40:00,22.8,12.1,30.28,NW,318,2.0,5.0,63,0.00,,OVC065,0.00,VWS V14.01,2013-01-21 03:40:00,
2013-01-20 21:43:00,22.8,12.1,30.28,NW,319,2.0,6.0,63,0.00,,OVC065,0.00,VWS V14.01,2013-01-21 03:43:00,
2013-01-20 21:44:00,22.8,12.1,30.28,NNW,327,0.0,6.0,63,0.00,,OVC065,0.00,VWS V14.01,2013-01-21 03:44:00,
2013-01-20 21:46:00,22.6,11.9,30.28,NW,325,0.0,6.0,63,0.00,,OVC065,0.00,VWS V14.01,2013-01-21 03:46:00,
2013-01-20 21:48:00,22.6,11.9,30.28,North,355,6.0,8.0,63,0.00,,OVC065,0.00,VWS V14.01,2013-01-21 03:48:00,
2013-01-20 21:49:00,22.6,11.9,30.28,NNW,336,5.0,8.0,63,0.00,,OVC065,0.00,VWS V14.01,2013-01-21 03:49:00,
2013-01-20 21:52:00,22.6,11.9,30.28,NW,308,0.0,8.0,63,0.00,,OVC065,0.00,VWS V14.01,2013-01-21 03:52:00,
2013-01-20 21:53:00,22.6,11.9,30.28,WNW,300,0.0,8.0,63,0.00,,OVC065,0.00,VWS V14.01,2013-01-21 03:53:00,
2013-01-20 21:54:00,22.6,11.9,30.28,NW,310,2.0,8.0,63,0.00,,OVC065,0.00,VWS V14.01,2013-01-21 03:54:00,
2013-01-20 21:57:00,22.4,11.7,30.28,NW,322,3.0,8.0,63,0.00,,OVC065,0.00,VWS V14.01,2013-01-21 03:57:00,
2013-01-20 21:58:00,22.4,11.7,30.28,WNW,295,0.0,8.0,63,0.00,,OVC065,0.00,VWS V14.01,2013-01-21 03:58:00,
2013-01-20 21:59:00,22.4,11.7,30.28,NW,309,0.0,8.0,63,0.00,,OVC065,0.00,VWS V14.01,2013-01-21 03:59:00,
2013-01-20 22:00:00,22.4,11.7,30.28,NW,309,0.0,8.0,63,0.00,,,0.00,VWS V14.01,2013-01-21 04:00:00,
2013-01-20 22:02:00,22.4,12.1,30.28,NW,308,0.0,5.0,64,0.00,,OVC065,0.00,VWS V14.01,2013-01-21 04:02:00,
2013-01-20 22:03:00,22.4,12.1,30.28,NW,318,0.0,5.0,64,0.00,,OVC065,0.00,VWS V14.01,2013-01-21 04:03:00,
2013-01-20 22:04:00,22.4,12.1,30.28,NW,315,0.0,5.0,64,0.00,,OVC065,0.00,VWS V14.01,2013-01-21 04:04:00,
2013-01-20 22:07:00,22.6,12.3,30.28,NNW,329,5.0,5.0,64,0.00,,OVC065,0.00,VWS V14.01,2013-01-21 04:07:00,
2013-01-20 22:08:00,22.4,12.1,30.28,NNW,344,5.0,9.0,64,0.00,,OVC065,0.00,VWS V14.01,2013-01-21 04:08:00,
2013-01-20 22:09:00,22.4,12.1,30.28,NW,323,0.0,9.0,64,0.00,,OVC065,0.00,VWS V14.01,2013-01-21 04:09:00,
2013-01-20 22:12:00,22.4,12.1,30.28,NNW,329,3.0,9.0,64,0.00,,OVC065,0.00,VWS V14.01,2013-01-21 04:12:00,
2013-01-20 22:14:00,22.4,12.1,30.28,NNW,346,0.0,9.0,64,0.00,,OVC065,0.00,VWS V14.01,2013-01-21 04:14:00,
2013-01-20 22:15:00,22.4,12.1,30.28,NW,322,0.0,9.0,64,0.00,,OVC065,0.00,VWS V14.01,2013-01-21 04:15:00,
2013-01-20 22:17:00,22.4,12.1,30.28,NW,306,0.0,9.0,64,0.00,,OVC065,0.00,VWS V14.01,2013-01-21 04:17:00,
2013-01-20 22:19:00,22.4,12.1,30.28,NNW,335,5.0,9.0,64,0.00,,OVC065,0.00,VWS V14.01,2013-01-21 04:19:00,
2013-01-20 22:20:00,22.4,12.1,30.28,WNW,287,1.0,9.0,64,0.00,,OVC065,0.00,VWS V14.01,2013-01-21 04:20:00,
2013-01-20 22:22:00,22.4,12.1,30.28,NW,321,0.0,9.0,64,0.00,,OVC065,0.00,VWS V14.01,2013-01-21 04:22:00,
2013-01-20 22:24:00,22.4,12.1,30.28,NW,323,1.0,9.0,64,0.00,,OVC065,0.00,VWS V14.01,2013-01-21 04:24:00,
2013-01-20 22:25:00,22.4,12.1,30.28,NW,323,0.0,9.0,64,0.00,,OVC065,0.00,VWS V14.01,2013-01-21 04:25:00,
2013-01-20 22:28:00,22.3,12.0,30.28,NNW,328,0.0,9.0,64,0.00,,OVC065,0.00,VWS V14.01,2013-01-21 04:28:00,
2013-01-20 22:29:00,22.3,12.3,30.27,NW,319,0.0,9.0,65,0.00,,OVC065,0.00,VWS V14.01,2013-01-21 04:29:00,
2013-01-20 22:30:00,22.3,12.0,30.27,NW,319,8.0,9.0,64,0.00,,OVC065,0.00,VWS V14.01,2013-01-21 04:30:00,
2013-01-20 22:33:00,22.3,12.0,30.27,NW,309,1.0,10.0,64,0.00,,OVC065,0.00,VWS V14.01,2013-01-21 04:33:00,
2013-01-20 22:34:00,22.1,11.8,30.27,NW,319,2.0,10.0,64,0.00,,OVC065,0.00,VWS V14.01,2013-01-21 04:34:00,
2013-01-20 22:35:00,22.1,11.8,30.27,NW,321,4.0,10.0,64,0.00,,OVC065,0.00,VWS V14.01,2013-01-21 04:35:00,
2013-01-20 22:38:00,22.1,12.1,30.27,NW,309,1.0,10.0,65,0.00,,OVC065,0.00,VWS V14.01,2013-01-21 04:38:00,
2013-01-20 22:39:00,22.1,12.1,30.27,NW,318,5.0,10.0,65,0.00,,OVC065,0.00,VWS V14.01,2013-01-21 04:39:00,
2013-01-20 22:40:00,22.1,12.1,30.27,NW,306,2.0,10.0,65,0.00,,OVC065,0.00,VWS V14.01,2013-01-21 04:40:00,
2013-01-20 22:43:00,22.1,12.1,30.27,NNW,338,5.0,10.0,65,0.00,,OVC065,0.00,VWS V14.01,2013-01-21 04:43:00,
2013-01-20 22:44:00,22.1,12.1,30.26,NW,304,3.0,10.0,65,0.00,,OVC065,0.00,VWS V14.01,2013-01-21 04:44:00,
2013-01-20 22:45:00,22.1,12.1,30.26,NW,316,4.0,10.0,65,0.00,,OVC065,0.00,VWS V14.01,2013-01-21 04:45:00,
2013-01-20 22:49:00,22.1,12.1,30.26,North,355,6.0,10.0,65,0.00,,OVC075,0.00,VWS V14.01,2013-01-21 04:49:00,
2013-01-20 22:50:00,22.1,12.1,30.26,NNW,327,8.0,10.0,65,0.00,,OVC075,0.00,VWS V14.01,2013-01-21 04:50:00,
2013-01-20 22:54:00,22.1,12.1,30.26,NW,318,4.0,10.0,65,0.00,,OVC075,0.00,VWS V14.01,2013-01-21 04:54:00,
2013-01-20 22:55:00,22.1,12.5,30.26,NW,319,0.0,10.0,66,0.00,,OVC075,0.00,VWS V14.01,2013-01-21 04:55:00,
2013-01-20 22:56:00,22.1,12.5,30.26,NW,319,0.0,10.0,66,0.00,,OVC075,0.00,VWS V14.01,2013-01-21 04:56:00,
2013-01-20 22:59:00,22.1,12.5,30.27,NNW,344,6.0,10.0,66,0.00,,OVC075,0.00,VWS V14.01,2013-01-21 04:59:00,
2013-01-20 23:00:00,22.1,12.5,30.27,NNW,333,10.0,10.0,66,0.00,,OVC075,0.00,VWS V14.01,2013-01-21 05:00:00,
2013-01-20 23:01:00,22.1,12.5,30.27,NW,317,11.0,11.0,66,0.00,,OVC075,0.00,VWS V14.01,2013-01-21 05:01:00,
2013-01-20 23:02:00,22.1,12.5,30.27,NNW,329,3.0,11.0,66,0.00,,OVC075,0.00,VWS V14.01,2013-01-21 05:02:00,
2013-01-20 23:03:00,22.1,12.5,30.27,NW,322,6.0,11.0,66,0.00,,OVC075,0.00,VWS V14.01,2013-01-21 05:03:00,
2013-01-20 23:06:00,22.0,12.4,30.27,WNW,300,5.0,11.0,66,0.00,,OVC075,0.00,VWS V14.01,2013-01-21 05:06:00,
2013-01-20 23:08:00,22.0,12.4,30.27,NNW,337,5.0,11.0,66,0.00,,OVC075,0.00,VWS V14.01,2013-01-21 05:08:00,
2013-01-20 23:11:00,22.0,12.4,30.27,NW,307,6.0,11.0,66,0.00,,OVC075,0.00,VWS V14.01,2013-01-21 05:11:00,
2013-01-20 23:13:00,22.0,12.4,30.27,North,350,5.0,11.0,66,0.00,,OVC075,0.00,VWS V14.01,2013-01-21 05:13:00,
2013-01-20 23:16:00,21.8,11.9,30.26,NW,310,9.0,13.0,65,0.00,,OVC075,0.00,VWS V14.01,2013-01-21 05:16:00,
2013-01-20 23:18:00,21.8,11.5,30.26,NW,311,6.0,14.0,64,0.00,,OVC075,0.00,VWS V14.01,2013-01-21 05:18:00,
2013-01-20 23:21:00,21.7,11.4,30.26,NW,304,2.0,14.0,64,0.00,,OVC075,0.00,VWS V14.01,2013-01-21 05:21:00,
2013-01-20 23:22:00,21.7,11.4,30.26,NW,304,10.0,14.0,64,0.00,,OVC075,0.00,VWS V14.01,2013-01-21 05:22:00,
2013-01-20 23:23:00,21.7,11.4,30.26,NW,312,9.0,14.0,64,0.00,,OVC075,0.00,VWS V14.01,2013-01-21 05:23:00,
2013-01-20 23:24:00,21.7,11.4,30.26,NNW,347,11.0,14.0,64,0.00,,OVC075,0.00,VWS V14.01,2013-01-21 05:24:00,
2013-01-20 23:26:00,21.7,11.4,30.26,NW,325,2.0,14.0,64,0.00,,OVC075,0.00,VWS V14.01,2013-01-21 05:26:00,
2013-01-20 23:27:00,21.7,11.8,30.26,West,277,3.0,14.0,65,0.00,,OVC075,0.00,VWS V14.01,2013-01-21 05:27:00,
2013-01-20 23:28:00,21.7,11.8,30.26,NW,306,2.0,14.0,65,0.00,,OVC075,0.00,VWS V14.01,2013-01-21 05:28:00,
2013-01-20 23:29:00,21.7,11.8,30.26,NW,309,2.0,14.0,65,0.00,,OVC075,0.00,VWS V14.01,2013-01-21 05:29:00,
2013-01-20 23:30:00,21.7,11.8,30.26,NW,315,4.0,14.0,65,0.00,,,0.00,VWS V14.01,2013-01-21 05:30:00,
2013-01-20 23:31:00,21.7,11.8,30.26,NW,316,3.0,10.0,65,0.00,,OVC075,0.00,VWS V14.01,2013-01-21 05:31:00,
2013-01-20 23:32:00,21.7,11.8,30.26,NW,316,0.0,10.0,65,0.00,,OVC075,0.00,VWS V14.01,2013-01-21 05:32:00,
2013-01-20 23:34:00,21.7,11.8,30.26,NNW,348,1.0,10.0,65,0.00,,OVC075,0.00,VWS V14.01,2013-01-21 05:34:00,
2013-01-20 23:36:00,21.5,11.6,30.26,NNW,341,4.0,10.0,65,0.00,,OVC075,0.00,VWS V14.01,2013-01-21 05:36:00,
2013-01-20 23:38:00,21.5,11.6,30.26,NW,311,3.0,10.0,65,0.00,,OVC075,0.00,VWS V14.01,2013-01-21 05:38:00,
2013-01-20 23:39:00,21.5,11.6,30.26,NNW,337,0.0,10.0,65,0.00,,OVC075,0.00,VWS V14.01,2013-01-21 05:39:00,
2013-01-20 23:41:00,21.5,11.9,30.26,NNW,327,4.0,10.0,66,0.00,,OVC075,0.00,VWS V14.01,2013-01-21 05:41:00,
2013-01-20 23:43:00,21.3,11.7,30.26,WNW,302,0.0,10.0,66,0.00,,OVC075,0.00,VWS V14.01,2013-01-21 05:43:00,
2013-01-20 23:44:00,21.3,11.7,30.26,NNW,330,0.0,10.0,66,0.00,,OVC075,0.00,VWS V14.01,2013-01-21 05:44:00,
2013-01-20 23:47:00,21.3,11.7,30.26,NW,323,6.0,11.0,66,0.00,,OVC065,0.00,VWS V14.01,2013-01-21 05:47:00,
2013-01-20 23:48:00,21.3,11.7,30.26,NW,313,1.0,11.0,66,0.00,,OVC065,0.00,VWS V14.01,2013-01-21 05:48:00,
2013-01-20 23:49:00,21.3,11.7,30.26,NW,312,7.0,11.0,66,0.00,,OVC065,0.00,VWS V14.01,2013-01-21 05:49:00,
2013-01-20 23:52:00,21.3,12.1,30.26,NW,308,6.0,11.0,67,0.00,,OVC065,0.00,VWS V14.01,2013-01-21 05:52:00,
2013-01-20 23:53:00,21.3,11.7,30.26,West,270,5.0,11.0,66,0.00,,OVC065,0.00,VWS V14.01,2013-01-21 05:53:00,
2013-01-20 23:54:00,21.3,11.7,30.26,NW,318,3.0,11.0,66,0.00,,OVC065,0.00,VWS V14.01,2013-01-21 05:54:00,
2013-01-20 23:57:00,21.3,12.1,30.26,WNW,298,1.0,11.0,67,0.00,,OVC065,0.00,VWS V14.01,2013-01-21 05:57:00,
2013-01-20 23:58:00,21.3,12.1,30.26,NNW,346,5.0,11.0,67,0.00,,OVC065,0.00,VWS V14.01,2013-01-21 05:58:00,
2013-01-20 23:59:00,21.3,11.7,30.26,NNW,338,5.0,11.0,66,0.00,,OVC065,0.00,VWS V14.01,2013-01-21 05:59:00,